GEFSSE_con_prob3kmehi_042.txt.gz
EHI
1 11 33 50 59 65 68 71 77 84 89 91 91 91 90 89 86 80 72 61 44 24 11 5 3 2 1 0 0 0 0 0 0 0 0 0 0 0 0 0 0 0 0
5 17 41 61 70 73 72 71 72 75 78 82 84 85 85 86 85 80 72 57 35 16 6 2 1 1 0 0 0 0 0 0 0 0 0 0 0 0 0 0 0 0 0
13 22 46 70 81 82 80 74 66 59 56 59 64 65 66 69 69 63 52 36 19 6 1 0 0 0 0 0 0 0 0 0 0 0 0 0 0 0 0 0 0 0 0
16 20 40 70 86 88 85 77 63 46 34 31 34 35 36 38 38 32 21 11 5 1 0 0 0 0 0 0 0 0 0 0 0 0 0 0 0 0 0 0 0 0 0
11 14 35 68 86 89 86 76 60 40 22 14 12 11 11 11 11 8 4 1 0 0 0 0 0 0 0 0 0 0 0 0 0 0 0 0 0 0 0 0 0 0 0
8 12 35 67 83 84 80 69 53 35 20 9 4 1 1 1 1 1 0 0 0 0 0 0 0 0 0 0 0 0 0 0 0 0 0 0 0 0 0 0 0 0 0
11 14 34 63 76 73 65 52 39 28 17 9 3 0 0 0 0 0 0 0 0 0 0 0 0 0 0 0 0 0 1 1 0 0 0 0 0 0 0 0 1 0 0
16 17 26 44 56 56 49 38 28 21 14 7 2 0 0 0 0 0 0 0 0 0 0 0 0 0 0 0 0 1 2 2 1 0 0 0 1 1 1 0 0 0 0
15 15 14 18 27 35 36 31 25 20 13 6 2 0 0 1 0 0 0 0 0 0 0 0 0 0 0 0 0 1 3 2 1 0 0 1 2 2 1 0 0 0 0
7 7 5 5 9 16 23 26 25 20 12 6 2 0 0 0 0 0 0 0 0 0 0 0 0 0 0 0 0 1 2 1 0 0 0 1 2 2 1 1 0 0 0
1 2 3 4 6 10 16 20 20 15 9 4 1 0 0 0 0 0 0 0 0 0 0 0 0 0 0 0 0 0 0 0 0 0 0 0 1 1 1 1 1 1 0
1 2 4 5 9 13 16 16 15 10 5 2 0 0 0 0 0 0 0 0 0 0 0 0 0 0 0 0 0 0 0 0 0 0 0 0 0 1 1 3 4 3 2
1 2 4 6 11 17 18 17 14 8 4 1 0 0 0 0 0 0 0 0 0 0 0 0 0 0 0 0 0 0 0 0 0 0 0 0 0 1 3 5 7 5 3
0 1 3 6 12 17 18 19 17 10 5 2 1 0 0 0 0 0 0 0 0 0 0 0 0 0 0 0 0 0 0 0 0 0 0 0 2 3 4 6 7 5 3
2 1 2 6 11 16 18 19 17 11 5 3 1 0 0 0 0 0 0 0 0 0 0 0 0 0 0 0 0 0 0 0 0 0 0 1 4 7 7 6 6 5 4
10 6 3 6 10 15 19 20 17 10 5 3 1 0 0 0 0 0 0 0 0 0 0 0 0 0 0 0 0 0 0 0 0 0 0 0 2 6 8 7 7 6 5
28 18 10 10 13 17 20 21 16 10 6 4 2 0 0 0 0 0 0 0 0 0 0 0 0 0 0 0 0 0 0 0 0 0 0 0 0 2 4 5 6 6 4
47 39 28 23 23 24 23 21 17 11 7 5 3 1 0 0 0 0 0 0 0 0 0 0 0 0 0 0 0 0 0 0 0 0 0 0 0 0 0 1 2 3 3
64 59 53 47 43 39 33 25 17 11 7 4 3 1 0 0 0 0 0 0 0 0 0 0 0 0 0 0 0 0 0 0 0 0 0 0 0 0 0 0 0 1 1
72 74 74 72 66 59 50 36 23 14 9 5 3 2 1 1 0 0 0 0 0 0 0 0 0 0 0 0 0 0 0 0 0 0 0 0 0 0 0 0 0 0 0
72 79 86 86 82 75 66 51 32 19 11 6 4 2 2 2 1 0 0 0 0 0 0 0 0 0 0 0 0 0 0 0 0 0 0 0 0 0 0 0 0 0 0
63 75 86 90 86 77 66 50 31 17 9 4 3 2 1 2 1 0 0 0 0 0 0 0 0 0 0 0 0 0 0 0 0 0 0 0 0 0 0 0 0 0 0
50 64 79 82 75 64 51 36 22 11 5 2 1 1 0 1 1 0 0 0 0 0 0 0 0 0 0 0 0 0 0 0 0 0 0 0 0 0 0 0 0 0 0
39 50 63 65 56 45 35 25 15 8 4 1 0 0 0 0 0 0 0 0 0 0 0 0 0 0 0 0 0 0 0 0 0 0 0 0 0 0 0 0 0 0 0
31 37 43 43 35 28 23 16 9 5 2 1 0 0 0 0 0 0 0 0 0 0 0 0 0 0 0 0 0 0 0 0 0 0 0 0 0 0 0 0 0 0 0
28 31 33 29 23 19 16 9 4 2 1 0 0 0 0 0 0 0 0 0 0 0 0 0 0 0 0 0 0 0 0 0 0 0 0 0 0 0 0 0 0 0 0

GEFSSE_con_prob3kmehi_048.txt.gz
EHI
7 14 16 6 1 1 7 24 50 70 76 69 61 59 59 61 65 69 70 64 54 40 25 14 6 1 0 0 0 0 0 0 0 0 0 0 0 0 0 0 0 0 0
18 22 18 7 2 2 10 31 58 76 81 79 75 73 71 71 73 73 71 63 50 32 17 7 3 0 0 0 0 0 0 0 0 0 0 0 0 0 0 0 0 0 0
29 26 15 7 5 4 11 34 62 80 86 87 87 86 83 82 82 75 64 51 36 20 7 2 0 0 0 0 0 0 0 0 0 0 0 0 0 0 0 0 0 0 0
24 22 15 12 11 8 13 32 57 74 81 84 86 85 83 81 77 66 47 30 18 9 2 0 0 0 0 0 0 0 0 0 0 0 0 0 0 0 0 0 0 0 0
12 15 22 25 19 15 16 27 45 57 64 70 75 75 72 66 58 46 28 14 7 2 0 0 0 0 0 0 0 0 0 0 0 0 0 0 0 0 0 0 0 0 0
5 11 26 36 32 24 21 23 30 37 43 51 58 59 54 47 39 27 14 6 2 0 0 0 0 0 0 0 0 0 0 0 0 0 0 0 0 1 0 0 0 0 0
3 9 25 39 41 33 27 23 22 24 30 38 43 42 38 33 25 15 6 1 0 0 0 0 0 0 0 0 0 0 0 0 0 0 0 1 3 3 1 0 0 0 0
3 8 20 32 35 32 28 25 21 19 24 29 30 28 24 20 14 7 2 1 1 0 0 0 0 0 0 0 0 0 0 0 0 0 0 3 5 4 1 0 0 0 0
3 5 11 16 18 19 21 21 18 16 17 19 19 16 13 9 6 3 1 1 1 0 0 0 0 0 0 0 0 0 0 0 0 0 1 4 7 5 1 0 0 0 0
1 2 4 5 6 7 9 12 12 11 12 12 11 8 5 3 2 2 1 1 1 0 0 0 0 0 0 0 0 0 0 0 0 0 2 7 10 6 2 1 1 1 0
1 1 1 2 3 2 2 4 7 7 7 6 5 4 2 1 1 3 4 3 1 0 0 0 0 0 0 0 0 0 0 0 0 0 3 9 11 7 3 2 2 2 1
2 2 1 1 2 1 1 2 2 2 2 2 2 2 1 0 0 3 6 4 1 0 0 0 0 0 0 0 0 0 0 0 0 0 3 8 8 6 5 5 4 4 3
3 2 1 0 0 0 0 0 0 0 0 0 1 2 1 0 0 2 3 2 0 0 0 0 0 0 0 0 0 0 0 0 0 0 2 4 5 6 8 9 8 8 9
4 3 1 1 1 1 1 0 0 0 0 1 1 1 0 0 0 0 0 0 0 0 0 0 0 0 0 0 0 0 0 0 0 0 1 2 3 5 9 12 12 11 12
7 6 4 4 6 6 6 4 3 2 3 4 3 2 0 0 0 1 1 2 1 0 0 0 0 0 0 0 0 0 0 0 0 0 0 0 1 3 7 11 12 11 10
16 14 11 12 15 16 15 11 7 6 7 8 7 6 3 2 3 5 6 6 5 2 1 1 0 0 0 0 0 0 0 0 0 0 0 0 0 2 4 6 8 8 6
30 29 24 22 27 31 29 23 16 13 13 13 13 12 9 7 9 12 13 12 10 7 5 4 2 1 0 0 0 0 0 0 0 0 0 0 0 1 1 2 3 4 3
50 50 45 39 43 49 49 42 34 30 29 25 23 21 17 15 17 20 22 22 20 16 13 10 6 2 0 0 0 0 0 0 0 0 0 0 0 0 0 0 1 1 1
68 68 66 63 64 69 69 63 56 53 48 40 34 30 26 24 25 27 29 27 26 23 18 13 8 5 3 2 1 1 0 0 0 0 0 0 0 0 0 0 0 0 0
75 78 79 81 83 84 84 80 74 68 58 47 40 36 32 30 28 28 25 21 21 20 15 11 9 7 6 4 2 0 0 0 0 0 0 0 0 0 0 0 0 0 0
76 81 86 90 94 94 93 90 83 73 60 47 39 34 30 26 23 18 15 13 13 11 9 7 6 5 4 3 1 0 0 0 0 0 0 0 0 0 0 0 0 0 0
68 76 86 94 98 97 96 91 81 68 54 42 33 26 21 18 14 9 7 8 8 5 4 3 2 1 1 1 0 0 0 0 0 0 0 0 0 0 0 0 0 0 0
61 67 78 90 96 95 91 84 72 57 44 33 24 17 12 9 7 4 3 3 3 2 1 1 0 0 0 0 0 0 0 0 0 0 0 0 0 0 0 0 0 0 0
65 68 75 84 89 87 82 74 62 48 35 24 16 10 5 3 2 1 0 1 1 0 0 0 0 0 0 0 0 0 0 0 0 0 0 0 0 0 0 0 0 0 0
70 72 74 76 74 69 65 59 50 38 26 16 8 4 1 0 0 0 0 0 0 0 0 0 0 0 0 0 0 0 0 0 0 0 0 0 0 0 0 0 0 0 0
71 72 71 66 60 54 51 46 40 33 21 9 3 1 0 0 0 0 0 0 0 0 0 0 0 0 0 0 0 0 0 0 0 0 0 0 0 0 0 0 0 0 0

GEFSSE_con_prob3kmehi_054.txt.gz
EHI
49 54 66 56 31 13 3 0 0 0 0 0 0 1 4 12 20 25 30 30 20 8 2 0 0 0 0 0 1 1 1 0 0 1 2 6 14 20 23 21 13 5 1
61 62 67 55 30 13 3 0 0 0 0 0 0 1 3 9 16 22 24 23 15 6 2 0 0 0 0 0 0 0 0 0 0 0 1 3 6 11 17 22 18 8 3
61 54 53 46 26 11 3 0 0 0 0 1 2 2 4 7 15 20 18 14 8 3 1 0 0 0 0 0 0 0 0 0 0 0 0 0 0 3 8 14 13 7 4
42 33 33 34 22 10 3 0 0 1 1 3 7 10 11 14 19 19 13 7 4 1 0 0 0 0 0 0 0 0 0 0 0 0 0 0 0 1 3 4 4 3 3
25 20 24 27 19 9 3 1 1 2 4 9 17 23 26 27 26 19 9 3 1 0 0 0 0 0 0 0 0 0 0 0 0 1 2 1 2 3 3 2 1 1 2
16 15 18 22 15 7 3 1 1 3 8 16 27 36 40 39 30 17 6 2 1 0 0 0 0 0 0 0 0 0 0 0 1 2 4 5 8 9 6 2 1 2 2
18 14 14 18 14 6 2 1 1 3 9 19 29 39 43 40 29 13 3 1 1 0 0 0 0 0 0 0 0 0 0 0 1 2 8 18 26 25 16 6 3 3 2
32 25 17 14 11 4 1 0 1 3 8 15 22 29 34 31 21 9 2 1 1 1 0 0 0 0 0 0 0 0 0 0 0 3 15 35 51 47 30 13 6 5 4
43 35 18 9 6 2 0 0 0 1 5 8 11 15 19 17 10 5 3 3 3 2 0 0 0 0 0 0 0 0 0 0 0 5 22 48 68 64 41 20 10 6 5
44 37 18 4 2 0 0 0 1 1 2 3 4 5 6 5 3 2 4 7 7 3 0 0 0 0 0 0 0 0 0 0 1 7 26 53 69 64 42 20 9 5 4
37 33 20 8 4 1 1 2 2 2 1 1 1 0 1 1 1 4 13 22 17 7 3 1 0 0 0 0 0 0 0 0 3 12 32 53 62 53 35 18 8 4 2
23 25 26 21 11 4 7 9 5 2 3 1 0 1 1 1 5 13 29 38 27 13 6 4 2 0 0 0 0 1 0 1 5 15 35 52 53 42 29 17 9 4 2
12 17 30 35 21 11 17 17 7 5 7 5 5 7 5 4 10 22 35 38 27 14 8 6 4 1 0 0 0 0 0 0 4 13 29 42 42 34 25 17 10 5 2
13 14 30 47 39 29 34 28 13 11 14 15 18 21 15 12 16 25 33 31 22 14 12 10 8 5 2 1 0 0 0 0 2 6 15 24 27 25 22 17 10 5 3
25 19 31 58 64 59 60 49 29 25 29 34 39 37 29 26 31 38 42 38 29 27 27 22 16 12 8 5 2 0 0 0 0 2 6 10 14 16 16 14 9 6 5
48 40 47 72 86 86 82 70 54 46 48 54 59 58 50 49 58 64 64 57 50 50 48 39 30 24 17 11 6 3 1 0 0 1 2 4 6 7 9 9 7 6 6
72 70 72 83 94 96 90 82 70 62 63 69 74 79 75 73 80 84 80 73 68 67 64 53 43 35 26 18 13 7 3 2 2 1 1 2 2 3 4 4 4 4 5
88 90 90 90 95 98 95 88 79 74 77 82 86 91 89 85 86 87 84 78 75 72 65 53 42 33 26 20 16 10 5 3 3 2 2 1 1 1 1 1 2 3 3
96 98 97 95 97 99 98 94 89 88 89 91 91 91 87 82 80 79 77 74 69 64 53 40 29 22 17 13 10 7 4 3 2 1 1 1 0 0 0 0 1 1 1
98 99 99 98 99 100 100 99 97 96 94 90 86 83 78 72 68 66 63 59 55 48 37 26 16 11 7 5 3 2 1 1 1 0 0 0 0 0 0 0 0 0 0
97 98 100 99 99 100 100 100 98 96 92 85 76 70 66 61 56 51 46 42 39 34 25 15 8 3 2 1 1 0 0 0 0 0 0 0 0 0 0 0 0 0 0
96 97 97 98 99 99 99 99 96 91 85 75 63 56 52 49 45 38 32 28 26 23 16 8 3 0 0 0 1 0 0 0 0 0 0 0 0 0 0 0 0 0 0
95 94 94 95 97 97 97 96 92 83 73 64 53 44 39 36 31 26 20 18 16 14 9 4 1 0 0 0 0 0 0 0 0 0 0 0 0 0 0 0 0 0 0
90 91 91 91 93 94 94 92 85 73 62 54 44 35 28 23 16 12 10 9 8 6 3 1 0 0 0 0 0 0 0 0 0 0 0 0 0 0 0 0 0 0 0
79 81 83 83 83 83 82 79 72 60 50 43 34 24 16 11 6 3 3 3 2 1 0 0 0 0 0 0 0 0 0 0 0 0 0 0 0 0 0 0 0 0 0
69 72 74 75 74 71 69 66 59 49 41 35 27 15 7 4 2 1 0 0 0 0 0 0 0 0 0 0 0 0 0 0 0 0 0 0 0 0 0 0 0 0 0

GEFSSE_con_prob3kmehi_060.txt.gz
EHI
8 27 57 76 85 90 90 85 72 58 54 55 58 59 60 63 66 67 62 58 50 33 14 4 1 0 0 1 1 1 2 3 2 0 1 6 11 12 15 16 11 10 13
17 32 59 79 86 87 85 77 62 48 42 41 42 44 47 51 54 55 51 46 38 23 9 2 1 0 0 0 0 1 2 3 2 1 0 3 8 10 13 16 15 13 15
38 41 59 78 84 81 73 60 44 30 25 24 23 23 24 27 29 30 29 25 19 10 3 1 0 0 0 0 0 1 3 3 2 1 0 1 3 6 10 14 17 17 18
51 47 56 74 79 73 60 44 27 16 13 13 12 9 8 8 9 10 10 8 6 2 0 0 0 0 0 0 1 3 4 4 2 1 0 0 1 3 8 12 16 19 21
45 44 54 70 74 66 51 34 20 11 8 7 5 3 2 2 3 3 2 1 1 0 0 0 0 0 0 0 2 3 3 2 1 0 0 0 1 2 6 11 15 19 21
36 38 50 64 69 63 48 31 19 12 8 5 2 1 1 0 1 1 0 0 0 0 0 0 0 0 0 0 1 2 2 0 0 0 0 0 1 3 6 11 14 16 17
32 33 42 56 65 61 50 34 21 14 10 6 3 1 1 1 1 0 0 0 0 0 0 0 0 0 0 0 1 2 2 1 0 0 0 0 2 4 7 9 12 13 14
32 30 32 41 52 53 46 33 23 16 12 8 5 3 2 3 3 1 0 0 0 0 0 0 0 0 0 0 0 1 2 1 0 0 0 1 4 9 11 11 12 13 13
27 25 22 23 29 33 30 25 20 16 13 10 8 5 5 6 5 3 2 2 2 2 2 1 0 0 0 0 1 1 2 2 1 0 0 2 6 13 18 19 15 13 12
17 16 14 12 12 13 13 13 12 11 10 10 9 7 6 6 5 5 5 6 7 6 5 4 3 1 1 1 1 2 3 2 1 0 0 3 8 15 24 26 20 13 10
6 8 9 10 9 7 5 5 5 5 5 6 6 5 4 3 2 3 6 10 11 9 7 6 5 3 1 1 1 2 2 1 0 0 2 7 13 19 25 25 20 14 9
3 3 5 8 10 7 4 2 1 1 2 3 2 1 1 0 0 1 4 8 11 9 7 5 4 3 1 0 0 1 1 1 0 0 4 13 21 22 22 21 19 14 10
7 4 2 4 6 5 3 1 0 0 1 1 0 0 0 0 0 0 1 4 5 5 4 3 2 1 0 0 0 0 0 0 0 0 6 18 25 22 19 17 16 14 11
16 9 3 3 2 2 1 0 0 0 0 0 0 0 0 0 0 0 0 1 1 2 3 2 1 0 0 0 0 0 0 0 0 1 8 20 25 21 16 13 12 11 10
27 18 9 5 3 1 0 0 0 0 0 0 0 0 0 0 0 0 0 0 1 3 3 1 0 0 0 0 0 0 0 0 0 1 6 16 21 19 14 11 8 7 7
36 29 21 15 11 8 6 4 1 0 1 1 0 0 0 0 0 0 1 1 1 2 1 1 0 0 0 0 0 0 0 0 0 0 3 8 13 14 12 9 6 5 5
40 41 40 37 32 27 21 13 7 4 4 4 3 2 2 1 1 2 3 3 2 1 0 0 0 0 0 0 0 0 0 0 0 0 1 3 6 8 9 8 6 6 5
41 50 59 61 59 54 45 32 22 17 14 11 9 9 9 7 5 5 6 5 2 0 0 0 0 0 0 0 0 0 0 0 0 0 0 0 2 3 5 6 6 5 5
41 53 67 74 77 77 69 56 46 38 31 24 20 18 17 14 10 7 5 4 1 0 0 0 0 0 0 0 0 0 0 0 0 0 0 0 0 0 2 3 4 3 2
40 52 66 76 84 88 85 77 68 59 48 37 30 26 22 19 15 10 6 2 0 0 0 0 0 0 0 0 0 0 0 0 0 0 0 0 0 0 0 1 1 1 0
39 48 61 73 83 90 91 86 79 70 56 42 34 29 25 22 19 15 8 2 0 0 0 0 0 0 0 0 0 0 0 0 0 0 0 0 0 0 0 0 0 0 0
39 44 56 68 78 87 89 85 77 65 51 39 31 26 23 21 20 16 9 2 0 0 0 0 0 0 0 0 0 0 0 0 0 0 0 0 0 0 0 0 0 0 0
37 41 52 64 74 82 85 80 68 55 43 32 24 18 15 13 14 11 6 1 0 0 0 0 0 0 0 0 0 0 0 0 0 0 0 0 0 0 0 0 0 0 0
34 40 49 60 68 74 75 69 57 45 34 22 14 10 6 5 5 5 2 0 0 0 0 0 0 0 0 0 0 0 0 0 0 0 0 0 0 0 0 0 0 0 0
31 36 43 49 51 53 52 47 38 29 20 12 7 3 1 0 1 1 0 0 0 0 0 0 0 0 0 0 0 0 0 0 0 0 0 0 0 0 0 0 0 0 0
28 31 37 37 33 31 30 27 23 17 11 7 4 1 0 0 0 0 0 0 0 0 0 0 0 0 0 0 0 0 0 0 0 0 0 0 0 0 0 0 0 0 0

GEFSSE_con_prob3kmehi_066.txt.gz
EHI
13 16 17 17 29 56 82 95 97 98 99 98 98 98 94 85 75 65 49 35 27 23 21 18 13 9 6 2 1 2 1 1 0 0 0 0 0 0 0 0 0 0 1
29 27 26 25 34 56 81 94 97 98 99 99 99 98 95 90 83 73 59 45 35 25 19 14 9 6 4 1 1 1 1 1 0 0 0 0 0 0 0 0 0 1 2
49 41 34 35 43 60 81 94 97 99 100 99 98 96 93 90 85 77 66 54 40 25 14 8 5 2 1 1 0 0 0 0 0 0 0 0 0 0 0 0 0 1 3
56 45 38 42 52 65 81 93 97 97 98 96 92 88 83 79 75 67 59 48 32 17 8 3 1 0 0 1 0 0 0 0 0 0 0 0 0 0 0 0 0 2 4
48 42 41 49 57 68 82 92 95 95 93 89 82 75 70 64 58 50 41 29 18 9 3 1 0 0 0 0 0 0 0 0 0 0 0 0 0 0 0 0 1 2 3
38 36 42 54 60 66 78 87 89 88 87 81 73 65 58 49 41 31 21 13 7 3 1 0 0 0 0 0 0 0 0 0 0 0 0 0 0 0 0 1 2 3 4
36 33 41 54 59 62 69 76 78 79 79 74 64 54 44 33 24 16 9 5 2 1 0 0 0 0 0 0 0 0 0 0 0 0 0 0 1 2 1 2 4 6 6
38 34 37 44 47 51 58 64 67 70 70 63 51 37 26 17 11 7 4 2 0 0 0 0 0 0 0 0 0 0 0 0 0 0 0 1 2 3 3 2 3 6 7
34 33 32 29 29 35 44 52 57 59 56 46 32 21 12 8 5 3 1 0 0 0 0 0 0 0 0 0 0 0 0 0 0 0 0 1 3 5 6 4 3 5 7
29 27 25 21 19 22 28 37 42 41 36 26 17 10 6 4 3 1 0 0 0 0 0 0 0 0 0 0 0 0 0 0 0 0 0 2 4 6 6 5 4 5 7
26 21 17 18 19 18 19 22 25 22 17 11 7 5 3 1 1 0 0 0 0 0 0 0 0 0 0 0 0 0 0 0 0 0 1 3 4 4 5 5 5 6 6
23 17 12 14 17 17 15 13 12 10 6 3 3 2 1 0 0 0 0 0 0 0 0 0 0 0 0 0 0 0 0 0 0 0 0 1 2 3 5 6 5 5 5
16 13 9 10 11 11 9 8 7 5 3 1 1 1 1 0 0 0 0 0 0 0 0 0 0 0 0 0 0 0 0 0 0 0 0 1 3 6 7 6 5 4 4
8 7 6 5 6 5 4 5 5 4 3 2 1 0 0 0 0 0 0 0 0 0 0 0 0 0 0 0 0 0 0 0 0 0 1 4 6 8 8 6 3 3 3
4 4 4 3 4 4 3 4 4 3 2 2 1 0 0 0 0 0 0 0 0 0 0 0 0 0 0 0 0 0 0 0 0 1 3 5 7 7 7 5 3 2 2
3 3 3 3 3 3 4 4 4 2 1 1 0 0 0 0 0 0 0 0 0 0 0 0 0 0 0 0 0 0 0 0 0 1 2 4 5 6 7 7 6 5 4
2 2 3 3 3 2 2 3 3 2 0 0 0 0 0 0 0 0 0 0 0 0 0 0 0 0 0 0 0 0 0 0 0 0 1 1 3 5 7 9 10 8 6
3 3 4 5 5 3 1 1 1 1 0 0 0 0 0 0 0 0 0 0 0 0 0 0 0 0 0 0 0 0 0 0 0 0 0 0 1 2 4 6 7 5 4
9 7 8 9 8 5 4 3 2 1 0 0 0 0 0 0 0 0 0 0 0 0 0 0 0 0 0 0 0 0 0 0 0 0 0 0 0 0 1 1 1 1 1
16 16 16 16 15 12 12 10 7 4 2 1 0 0 0 0 0 0 0 0 0 0 0 0 0 0 0 0 0 0 0 0 0 0 0 0 0 0 0 0 0 0 0
20 23 25 25 24 26 26 23 18 11 4 1 0 0 0 0 0 0 0 0 0 0 0 0 0 0 0 0 0 0 0 0 0 0 0 0 0 0 0 0 0 0 0
20 24 28 29 31 35 37 33 24 14 6 2 1 1 1 0 0 0 0 0 0 0 0 0 0 0 0 0 0 0 0 0 0 0 0 0 0 0 0 0 0 0 0
20 23 26 29 33 36 36 32 25 17 10 6 4 3 2 1 0 0 0 0 0 0 0 0 0 0 0 0 0 0 0 0 0 0 0 0 0 0 0 0 0 0 0
18 20 22 25 28 28 27 25 22 18 13 9 7 5 2 1 0 0 0 0 0 0 0 0 0 0 0 0 0 0 0 0 0 0 0 0 0 0 0 0 0 0 0
13 14 15 15 15 15 15 17 17 15 12 9 6 3 1 0 0 0 0 0 0 0 0 0 0 0 0 0 0 0 0 0 0 0 0 0 0 0 0 0 0 0 0
7 8 8 7 7 7 9 12 13 11 9 7 4 1 0 0 0 0 0 0 0 0 0 0 0 0 0 0 0 0 0 0 0 0 0 0 0 0 0 0 0 0 0

GEFSSE_con_prob3kmehi_072.txt.gz
EHI
47 48 40 22 13 23 43 58 62 59 54 50 44 40 34 25 17 13 11 11 9 8 9 10 9 8 8 5 1 0 0 0 0 0 0 0 0 0 0 0 0 0 0
60 56 45 32 28 38 56 68 72 71 67 63 59 54 47 38 29 22 18 15 13 11 10 10 8 6 6 4 1 0 0 0 0 0 0 0 0 0 0 0 0 0 0
72 60 45 41 47 58 71 81 86 87 84 80 77 73 66 56 46 36 27 20 16 13 10 8 5 4 3 2 1 0 0 0 0 0 0 0 0 0 0 0 0 0 0
70 55 41 45 57 68 79 88 95 97 94 92 90 86 80 69 57 44 31 22 18 14 9 5 3 2 2 1 0 0 0 0 0 0 0 0 0 0 0 0 0 0 0
59 47 42 48 58 68 79 90 97 99 98 97 96 92 86 75 61 46 31 21 15 11 6 2 1 1 1 0 0 0 0 0 0 0 0 0 0 0 0 0 0 0 0
43 36 37 46 53 61 73 87 97 100 99 99 97 94 88 79 63 45 31 19 9 5 3 1 0 0 0 0 0 0 0 0 1 0 0 0 1 2 1 0 0 0 0
29 25 28 36 42 50 64 81 95 99 99 99 98 94 89 80 63 43 29 16 5 1 2 1 0 0 0 0 0 0 0 0 0 0 0 2 5 5 1 0 0 0 0
20 17 19 22 26 35 50 69 85 94 96 97 95 91 86 77 60 40 24 12 4 1 1 1 0 0 0 0 0 0 0 0 0 0 0 3 7 5 1 0 0 0 0
12 12 11 9 10 17 30 46 64 77 83 87 86 81 75 65 48 29 17 11 6 3 1 0 0 0 0 0 0 0 0 0 0 0 0 5 9 6 1 0 0 0 0
11 9 6 3 2 4 10 21 36 49 59 64 62 57 49 38 25 15 11 10 7 4 1 0 0 0 0 0 0 0 0 0 0 0 2 10 15 9 2 1 0 0 0
20 13 5 2 1 0 2 7 15 23 30 33 29 25 18 11 7 6 8 9 6 3 1 0 0 0 0 0 0 0 0 0 0 0 6 17 20 11 3 1 0 0 0
31 18 6 2 2 2 3 7 9 11 12 10 8 6 4 2 1 3 7 7 3 1 0 0 0 0 0 0 0 0 0 0 0 0 8 20 19 9 4 2 0 0 0
30 20 9 4 3 4 7 10 11 11 10 6 5 6 8 6 2 2 3 3 1 0 1 1 1 0 0 0 0 0 0 0 0 1 9 19 18 10 5 4 2 1 1
24 19 11 6 5 6 9 11 10 11 11 9 9 10 10 9 4 1 0 0 0 0 1 2 1 0 0 0 0 0 0 0 0 1 9 19 19 13 9 5 3 2 3
21 18 12 7 7 10 11 9 7 8 9 9 11 10 9 8 5 2 0 1 1 1 1 1 1 1 1 1 0 0 0 0 0 1 7 15 18 16 14 9 4 2 2
20 17 12 8 7 9 11 10 9 9 9 9 10 10 9 8 6 4 2 3 2 2 1 1 3 4 4 2 1 0 0 0 1 1 3 9 14 17 18 13 5 2 1
18 15 11 6 6 7 9 11 12 11 10 10 10 10 10 9 7 5 4 5 5 6 6 8 10 11 9 6 4 2 1 1 1 1 1 4 9 14 16 13 8 4 2
16 14 9 6 6 8 10 12 13 12 12 11 11 10 9 9 8 7 7 10 14 15 16 17 18 17 15 12 9 7 5 3 2 0 1 3 6 9 9 8 6 5 4
12 12 10 9 10 12 14 13 12 13 14 15 14 11 10 10 10 11 15 22 26 25 24 23 21 19 17 14 11 8 6 4 2 1 1 2 4 5 4 3 3 2 2
15 15 17 18 21 23 23 20 19 19 21 23 20 16 14 15 14 17 24 30 31 28 26 24 20 16 13 10 7 5 4 3 2 1 1 1 1 2 1 1 0 0 0
25 25 27 30 34 39 39 38 36 33 31 29 25 22 20 18 17 21 26 27 25 23 22 20 17 13 8 5 4 3 2 1 0 0 0 0 0 0 0 0 0 0 0
36 35 37 41 47 51 52 54 54 46 35 29 27 26 21 17 17 19 20 18 17 17 15 13 12 9 5 3 3 2 1 0 0 0 0 0 0 0 0 0 0 0 0
42 43 45 51 57 58 57 58 56 46 31 25 24 22 16 12 11 12 11 10 11 10 9 8 6 5 3 1 1 1 0 0 0 0 0 0 0 0 0 0 0 0 0
41 44 48 55 59 59 58 54 48 38 25 19 17 14 9 5 4 5 6 5 5 5 4 3 2 1 1 0 0 0 0 0 0 0 0 0 0 0 0 0 0 0 0
33 35 41 47 50 51 50 46 39 29 18 12 10 7 4 2 2 2 2 2 1 1 1 0 0 0 0 0 0 0 0 0 0 0 0 0 0 0 0 0 0 0 0
24 27 32 37 40 41 40 37 31 23 15 10 6 5 3 2 1 1 1 0 0 0 0 0 0 0 0 0 0 0 0 0 0 0 0 0 0 0 0 0 0 0 0

GEFSSE_con_prob3kmehi_078.txt.gz
EHI
97 98 98 89 66 35 14 5 4 3 3 3 3 3 3 3 3 4 4 4 3 3 3 3 3 3 3 4 5 5 5 7 11 17 25 31 33 31 24 14 8 5 4
97 98 97 90 68 38 16 7 4 3 3 4 3 3 3 3 3 3 4 3 3 3 3 3 3 3 3 3 4 4 4 5 7 10 13 17 18 18 16 16 15 10 6
98 96 95 90 72 45 23 12 7 5 5 5 4 3 3 3 4 4 3 3 3 3 3 3 3 3 3 3 3 3 3 3 4 4 4 5 6 6 8 16 21 15 9
97 95 94 92 80 57 35 23 14 11 10 10 8 6 5 5 5 5 4 3 3 3 3 3 3 3 3 3 3 3 3 3 3 4 4 6 6 5 6 12 16 13 10
92 94 95 95 88 71 51 35 24 18 16 17 16 12 9 8 7 6 4 3 3 3 3 3 3 3 3 3 3 3 3 3 5 6 7 11 13 9 7 7 9 9 8
80 85 92 95 91 79 61 44 33 27 25 25 24 20 15 11 10 7 4 3 3 3 3 3 3 3 3 3 3 3 3 4 8 9 11 19 24 19 11 8 9 8 7
73 77 84 90 88 79 65 51 43 40 40 38 34 28 22 18 13 8 4 3 3 3 3 3 3 3 3 3 3 3 3 6 10 11 20 36 43 35 22 11 8 7 5
78 75 75 78 80 76 68 59 54 53 53 50 43 35 30 25 17 9 6 4 3 3 3 3 3 3 3 3 3 3 4 6 8 10 27 51 59 52 36 17 7 5 4
81 69 55 55 61 63 60 60 61 58 55 50 42 34 30 25 17 11 8 6 4 3 3 3 3 3 3 3 4 4 5 6 5 7 24 51 65 61 46 23 8 4 4
74 56 35 32 38 39 41 46 51 51 46 39 31 24 21 17 12 9 10 9 6 3 3 3 3 3 3 5 6 7 7 5 4 8 25 51 66 65 52 31 13 6 4
66 47 27 22 22 21 24 29 32 32 29 24 17 14 11 8 6 10 18 20 11 4 3 4 4 4 4 6 10 10 8 5 3 13 37 60 69 66 56 39 21 10 7
62 44 28 24 18 14 19 22 18 15 13 11 9 7 5 4 7 17 31 30 15 5 4 5 5 5 4 6 9 10 7 4 4 17 43 64 67 62 56 43 27 14 9
52 41 35 30 20 18 25 22 15 13 11 10 11 9 6 5 9 22 32 28 16 7 5 6 6 5 4 5 7 7 5 4 5 17 41 58 60 57 53 44 31 19 13
41 40 44 46 39 43 44 31 19 18 19 21 24 19 11 8 10 20 27 23 15 12 12 12 10 8 7 7 6 4 4 4 7 17 34 49 53 53 51 43 32 22 17
42 43 56 68 71 73 67 47 30 26 27 33 36 27 16 14 16 23 27 24 18 18 25 24 20 17 15 13 11 9 8 9 12 20 31 40 45 48 48 39 28 21 17
55 55 68 84 89 87 76 59 44 36 35 40 43 34 23 23 30 35 34 31 24 25 33 35 31 26 22 20 19 19 18 18 23 28 31 33 34 37 40 35 26 18 15
73 73 77 85 89 87 75 62 52 43 41 47 49 43 31 30 40 45 42 38 32 33 39 40 36 31 27 25 24 24 25 26 29 31 30 28 24 24 30 33 28 20 14
86 86 81 78 83 84 74 64 56 51 53 58 60 53 40 36 43 49 47 42 40 40 41 40 38 37 34 28 24 23 23 25 26 24 22 20 16 15 20 26 25 20 16
93 92 84 78 80 80 75 68 63 64 67 69 68 63 53 46 48 51 51 49 45 43 41 38 39 42 39 29 21 18 17 18 19 15 11 10 9 9 11 14 14 13 11
95 94 88 83 82 81 77 72 68 68 71 71 69 66 61 56 55 57 57 53 48 42 39 37 36 36 33 25 16 12 11 12 12 9 6 5 4 4 4 4 4 4 4
91 90 87 83 81 80 77 72 68 66 64 62 58 55 54 55 56 56 53 48 42 36 33 32 30 25 20 15 10 6 6 7 6 5 4 3 2 1 0 1 1 1 1
81 80 79 77 75 74 72 71 69 66 60 49 42 39 40 43 43 41 39 34 29 25 24 24 21 15 9 6 4 2 2 2 2 1 1 1 0 0 0 0 0 0 0
67 67 68 69 69 69 70 71 73 69 55 38 28 24 24 24 24 24 22 19 15 15 15 14 10 6 3 2 1 0 0 0 0 0 0 0 0 0 0 0 0 0 0
48 50 53 57 59 62 67 69 68 59 41 26 17 13 11 10 10 10 10 8 7 7 6 4 2 0 0 0 0 0 0 0 0 0 0 0 0 0 0 0 0 0 0
30 32 36 40 42 46 52 55 49 36 23 15 11 8 6 5 4 4 3 3 2 2 1 0 0 0 0 0 0 0 0 0 0 0 0 0 0 0 0 0 0 0 0
20 23 26 28 30 33 38 39 32 20 13 10 8 6 5 4 4 3 2 1 1 0 0 0 0 0 0 0 0 0 0 0 0 0 0 0 0 0 0 0 0 0 0

GEFSSE_con_prob3kmehi_084.txt.gz
EHI
12 18 26 35 47 54 48 37 33 36 43 52 58 60 60 58 53 48 41 32 22 10 2 0 0 0 0 0 1 2 2 1 0 2 8 17 21 23 30 30 19 11 13
28 28 33 41 49 53 48 36 29 30 36 43 46 46 45 41 35 30 24 18 10 4 1 0 0 0 0 0 0 1 1 1 1 1 6 12 15 18 27 33 24 14 12
55 45 41 47 54 54 47 35 26 23 24 26 26 25 24 21 17 12 8 5 2 0 0 0 0 0 0 0 0 1 1 1 2 2 2 4 7 12 22 30 26 16 11
74 60 49 53 59 57 47 35 24 17 13 11 10 9 9 9 7 5 3 3 2 1 0 0 0 0 0 0 1 2 2 2 2 2 1 0 3 10 17 21 19 14 11
81 69 60 63 66 60 48 34 21 11 6 3 2 1 2 3 2 1 2 2 2 1 0 0 0 0 0 0 1 3 4 4 2 1 1 1 6 16 21 19 15 11 11
82 76 70 71 70 61 49 35 21 10 4 2 1 0 0 1 0 0 1 1 1 0 0 0 0 0 0 0 1 4 5 4 2 0 1 2 10 25 33 30 21 14 11
83 81 78 75 69 59 49 41 27 13 6 3 1 0 0 0 0 0 0 0 0 0 0 0 0 0 0 0 1 3 4 3 1 0 1 3 12 30 43 42 32 18 11
86 86 83 75 65 56 50 44 32 18 9 4 1 0 0 0 0 0 0 0 0 0 0 0 0 0 0 0 0 1 2 1 0 0 1 3 15 34 49 51 42 27 16
87 88 84 73 60 50 45 42 33 22 14 7 2 0 0 0 0 0 0 0 0 0 0 0 0 0 0 1 1 1 2 1 0 0 1 5 18 37 50 52 46 34 24
81 82 80 74 61 45 38 35 29 22 16 10 4 1 0 0 0 0 0 0 0 0 0 0 0 0 1 2 3 3 2 1 0 0 0 6 20 37 47 48 45 37 29
70 72 73 71 60 46 35 30 25 20 15 9 4 1 0 0 0 0 0 0 0 0 0 0 0 0 1 2 4 4 2 1 0 0 1 9 22 35 42 44 42 36 30
59 61 62 61 55 45 36 29 22 17 12 7 4 1 0 0 0 0 0 0 0 0 0 0 0 0 0 1 1 1 1 0 0 0 4 16 28 33 35 38 37 32 28
47 50 50 47 44 39 34 29 23 16 10 5 3 2 0 0 0 0 0 0 0 0 0 0 0 0 0 0 0 0 0 0 0 0 8 23 32 31 30 32 31 28 24
35 37 37 35 33 30 28 26 21 14 7 3 2 1 0 0 0 0 0 0 0 0 0 0 0 0 0 0 0 0 0 0 0 0 9 23 28 26 27 27 27 24 21
29 29 26 24 24 24 23 20 14 8 3 1 1 0 0 0 0 0 0 0 0 0 0 0 0 1 0 0 0 0 0 1 0 0 6 17 22 23 26 26 25 22 18
31 28 22 18 16 17 16 12 7 3 1 0 0 0 0 0 0 0 0 0 0 0 0 0 0 0 0 0 0 0 0 0 0 0 3 9 16 20 24 25 24 20 17
35 31 26 21 16 15 13 8 3 2 1 0 0 0 1 1 1 1 1 1 0 0 0 0 0 0 0 0 0 0 0 0 0 0 1 4 8 13 16 19 21 18 16
38 37 35 31 25 21 17 10 4 3 2 1 0 1 2 3 3 3 2 2 1 1 1 0 0 0 0 0 0 0 0 0 0 0 0 1 2 4 6 10 13 14 14
40 43 45 41 37 34 28 19 13 11 8 5 3 3 5 7 7 5 3 2 2 2 2 1 0 0 0 0 0 0 0 0 0 0 0 0 0 0 1 3 6 8 10
40 45 47 44 43 43 40 34 27 21 16 12 8 7 7 9 9 6 4 3 3 3 2 1 0 0 0 0 0 0 0 0 0 0 0 0 0 0 0 0 1 3 4
38 40 40 39 42 44 44 40 33 24 17 13 10 6 6 7 7 5 4 4 3 2 2 1 0 0 0 0 0 0 0 0 0 0 0 0 0 0 0 0 0 0 1
29 28 28 31 35 38 39 34 26 18 12 8 5 3 2 4 5 4 2 1 1 1 1 0 0 0 0 0 0 0 0 0 0 0 0 0 0 0 0 0 0 0 0
18 17 18 23 27 30 30 26 18 13 8 4 1 0 1 2 3 3 1 0 0 0 0 0 0 0 0 0 0 0 0 0 0 0 0 0 0 0 0 0 0 0 0
13 13 14 17 21 22 21 18 14 9 6 2 0 0 0 1 2 3 2 1 0 0 0 0 0 0 0 0 0 0 0 0 0 0 0 0 0 0 0 0 0 0 0
11 11 12 14 15 15 13 11 8 5 2 1 0 0 0 0 1 2 2 1 0 0 0 0 0 0 0 0 0 0 0 0 0 0 0 0 0 0 0 0 0 0 0
8 9 10 12 12 11 9 6 3 1 0 0 0 0 0 0 0 1 1 0 0 0 0 0 0 0 0 0 0 0 0 0 0 0 0 0 0 0 0 0 0 0 0

GEFSSE_con_prob3kmehi_090.txt.gz
EHI
25 25 23 21 33 62 84 93 98 100 100 100 98 93 86 78 67 52 36 23 14 7 3 1 1 0 0 0 0 0 0 1 2 2 1 0 0 1 1 1 0 1 1
40 34 29 27 36 59 79 90 95 99 100 100 98 94 86 78 68 54 39 25 15 7 2 0 0 0 0 0 0 0 1 2 3 2 1 0 0 1 1 1 1 3 4
55 45 36 35 42 58 75 86 92 95 96 97 96 92 84 75 66 55 38 24 15 8 2 0 0 0 0 1 0 0 1 2 2 2 2 1 1 2 2 2 4 6 6
60 52 44 45 53 62 75 85 89 90 89 89 88 85 78 69 60 48 32 20 13 6 2 0 0 0 0 0 0 0 0 1 1 1 1 0 1 2 3 3 5 8 7
63 61 58 60 65 69 77 84 86 84 82 79 76 73 68 60 49 36 23 15 9 4 1 0 1 1 1 1 0 0 0 0 0 0 0 0 0 2 3 3 6 8 8
66 66 69 72 73 74 77 81 82 81 79 74 66 61 56 48 36 25 16 11 6 2 0 0 1 2 3 3 1 0 0 0 0 0 0 0 1 2 3 4 6 8 7
68 68 74 77 76 74 75 77 80 80 77 70 61 53 44 34 24 17 12 7 3 1 1 1 2 4 6 5 3 1 0 0 0 0 0 0 2 4 5 5 6 6 5
71 74 78 78 75 72 72 74 76 75 71 63 54 44 33 22 16 13 9 3 1 1 2 2 2 4 6 7 6 3 1 0 0 0 0 1 3 6 8 9 8 6 5
79 83 84 78 71 68 69 70 70 66 59 51 42 33 23 14 10 8 5 2 1 2 3 3 2 3 6 8 7 3 1 0 0 0 0 1 3 7 11 13 11 7 5
85 86 85 77 69 65 63 63 62 56 46 38 30 24 17 10 7 5 3 1 2 2 2 2 2 5 6 6 5 2 1 0 0 0 0 1 3 7 12 16 15 9 5
77 79 79 73 68 66 64 61 57 50 41 31 23 18 13 8 4 3 2 1 2 2 1 1 3 5 6 4 2 1 0 0 0 0 0 1 4 7 11 16 15 10 5
64 65 64 63 65 68 69 65 60 55 44 30 20 15 10 5 3 3 2 2 2 1 0 0 1 3 2 1 1 0 0 0 0 0 0 1 5 7 9 12 11 7 4
58 56 53 54 59 66 71 70 67 62 49 31 18 13 8 3 1 2 2 3 3 2 1 1 0 0 0 0 0 0 0 0 0 0 1 3 5 6 7 8 8 5 3
56 50 47 48 52 59 66 67 64 58 46 30 19 12 7 3 1 1 1 2 2 2 2 1 0 0 0 0 0 0 0 0 0 1 3 5 7 8 9 9 9 8 7
47 41 38 40 43 49 54 54 49 43 35 26 19 12 6 3 2 0 0 0 1 1 1 1 0 0 0 0 0 0 0 0 0 0 2 6 10 14 15 12 11 12 14
37 33 29 28 32 36 37 36 35 31 25 21 17 11 5 2 1 0 0 0 0 0 0 0 0 0 0 0 0 0 0 0 0 0 1 3 9 15 16 13 12 14 16
32 30 25 21 23 25 24 23 23 22 19 16 13 9 4 1 0 0 0 0 0 0 0 0 0 0 0 0 0 0 0 0 0 0 0 1 3 7 10 10 10 11 11
29 28 24 19 19 19 16 14 14 13 12 11 10 7 3 1 1 0 0 0 0 0 0 0 0 0 0 0 0 0 0 0 0 0 0 0 0 2 4 5 5 5 5
23 24 22 19 17 15 12 10 9 8 7 7 7 5 3 1 1 1 1 0 0 0 0 0 0 0 0 0 0 0 0 0 0 0 0 0 0 0 1 1 1 2 1
18 18 19 17 14 11 9 8 7 6 5 5 4 3 2 1 2 2 1 0 0 0 0 0 0 0 0 0 0 0 0 0 0 0 0 0 0 0 0 0 0 0 0
17 16 17 16 11 7 5 5 5 4 2 2 1 1 0 1 1 1 0 0 0 0 0 0 0 0 0 0 0 0 0 0 0 0 0 0 0 0 0 0 0 0 0
14 14 16 15 10 5 3 2 3 2 0 0 0 0 0 0 0 0 0 0 0 0 0 0 0 0 0 0 0 0 0 0 0 0 0 0 0 0 0 0 0 0 0
12 12 14 14 10 5 3 3 2 1 0 0 0 0 0 0 0 0 0 0 0 0 0 0 0 0 0 0 0 0 0 0 0 0 0 0 0 0 0 0 0 0 0
11 12 13 12 8 5 5 5 3 1 0 0 0 0 0 0 0 0 0 0 0 0 0 0 0 0 0 0 0 0 0 0 0 0 0 0 0 0 0 0 0 0 0
11 11 11 9 6 5 6 6 3 1 0 0 0 0 0 0 0 0 0 0 0 0 0 0 0 0 0 0 0 0 0 0 0 0 0 0 0 0 0 0 0 0 0
10 10 9 8 6 5 5 4 2 1 1 0 0 0 0 0 0 0 0 0 0 0 0 0 0 0 0 0 0 0 0 0 0 0 0 0 0 0 0 0 0 0 0

GEFSSE_con_prob3kmehi_096.txt.gz
EHI
30 44 52 45 37 36 42 47 48 50 48 44 36 28 23 22 21 18 12 8 6 6 8 8 8 8 7 5 3 3 5 4 2 0 0 1 0 0 0 0 0 0 0
43 55 62 57 50 48 54 61 64 65 63 60 51 39 32 29 26 22 17 12 8 6 6 6 6 5 4 4 4 4 4 4 2 0 0 1 0 0 0 0 1 0 0
63 66 69 68 65 66 73 79 82 81 78 75 68 58 48 39 33 28 21 15 10 7 5 4 3 3 3 3 3 3 3 2 1 0 0 0 0 0 0 1 2 1 0
74 72 71 73 74 78 86 90 91 89 86 83 78 70 61 50 40 32 22 14 10 8 5 3 2 2 2 1 1 1 1 1 1 1 0 0 0 0 0 0 1 0 0
77 75 77 80 81 84 89 92 93 93 90 88 85 78 69 60 48 34 22 13 10 7 4 1 0 1 1 1 0 0 0 2 2 1 0 0 0 0 0 0 0 0 0
74 75 80 85 85 85 86 89 92 94 92 90 88 82 73 65 53 39 26 17 12 7 3 0 0 0 1 1 0 0 0 1 2 1 0 0 0 0 0 0 0 0 0
68 72 80 87 88 85 84 87 93 94 93 90 88 82 75 67 58 45 32 22 16 10 3 0 0 0 1 1 0 0 0 1 1 1 0 0 1 2 1 0 0 0 0
61 67 77 84 85 85 83 85 90 92 90 87 84 79 73 67 60 50 38 26 19 14 6 1 0 1 1 0 0 0 0 0 0 0 0 1 3 2 1 0 0 0 0
50 59 66 67 68 70 71 75 82 84 82 79 77 74 70 64 56 47 37 27 20 14 6 1 1 2 2 1 0 0 0 0 0 0 0 1 2 1 0 0 0 0 0
46 53 55 50 46 45 47 58 67 72 71 68 65 63 58 48 39 32 27 23 18 11 6 3 2 2 2 1 0 0 0 0 0 0 1 2 2 0 0 0 0 0 0
54 57 54 48 42 35 36 45 51 54 54 49 45 42 34 25 19 17 18 19 16 11 9 6 4 3 1 0 0 0 0 0 0 0 3 5 4 1 1 1 1 0 0
63 61 56 54 51 45 46 49 45 41 39 33 28 27 21 17 14 13 17 17 14 11 9 7 5 3 1 0 0 0 0 0 0 1 6 9 6 3 2 2 1 0 0
65 61 57 58 58 56 57 57 49 45 42 34 30 29 28 27 23 20 19 16 12 9 8 6 5 3 1 0 0 0 0 0 0 3 9 11 7 4 4 3 2 0 0
64 62 57 57 59 60 62 61 56 55 54 50 44 38 34 33 30 25 21 17 12 9 8 7 6 4 1 0 0 0 0 1 1 5 10 11 9 8 7 5 4 2 1
62 60 56 54 57 62 66 65 60 58 59 59 52 40 31 30 31 29 26 21 14 10 9 8 7 4 2 1 1 1 2 2 3 6 9 11 12 13 12 9 7 4 2
57 57 55 54 57 63 68 66 60 56 56 55 50 38 28 26 30 32 32 28 19 14 12 10 7 5 4 3 3 3 3 3 3 6 8 10 11 13 12 10 7 5 3
56 57 56 56 59 64 66 63 56 51 47 46 44 37 27 23 28 34 37 34 28 23 21 16 11 10 8 5 4 3 3 2 2 3 5 6 6 5 5 6 6 5 3
58 58 57 56 59 64 65 61 51 44 42 41 39 35 27 22 26 34 38 38 34 31 27 21 16 14 11 7 4 1 1 1 1 1 1 2 1 1 1 2 3 3 3
56 57 56 54 56 60 62 58 48 41 39 38 35 31 26 23 25 31 36 36 34 33 28 22 20 17 12 7 3 1 1 1 0 0 0 0 0 0 1 2 1 1 1
49 52 52 50 52 55 56 52 44 36 31 29 28 26 23 21 23 28 31 30 29 30 28 23 19 16 10 4 1 1 1 0 0 0 0 0 0 0 1 1 1 0 0
42 45 46 45 46 49 51 47 37 28 23 21 21 20 18 16 19 22 24 22 22 24 23 19 14 9 5 2 0 0 1 1 0 0 0 0 0 0 0 0 1 0 0
34 37 40 40 39 41 43 40 31 23 19 18 17 17 15 14 15 16 16 15 16 17 15 11 6 3 1 0 0 0 1 1 1 0 0 0 0 0 0 0 0 0 0
27 30 33 35 35 34 34 32 25 19 17 15 15 14 13 13 12 10 9 10 10 10 8 5 2 0 0 0 0 1 1 1 1 0 0 0 0 0 0 0 0 0 0
22 25 29 32 31 28 26 24 19 15 14 13 11 10 10 10 9 8 7 6 7 6 4 2 0 0 0 0 0 0 0 0 0 0 0 0 0 0 0 0 0 0 0
19 22 27 30 27 23 21 19 16 13 11 10 8 7 6 6 5 5 4 4 4 4 3 1 0 0 0 0 0 0 0 0 0 0 0 0 0 0 0 0 0 0 0
17 20 25 27 25 22 20 17 14 11 9 8 6 5 4 3 2 2 2 2 2 2 2 2 1 0 0 0 0 0 0 0 0 0 0 0 0 0 0 0 0 0 0

GEFSSE_con_prob3kmehi_102.txt.gz
EHI
87 90 90 76 51 28 13 4 0 0 0 0 0 1 4 7 11 18 24 24 22 16 11 7 3 1 1 2 3 2 1 3 7 12 19 25 28 28 23 15 8 3 0
89 91 90 80 59 34 17 8 4 2 1 1 1 1 4 6 9 12 16 18 17 12 8 6 3 1 0 1 2 1 1 2 4 7 10 13 15 16 17 19 18 9 2
91 91 90 85 70 47 28 19 12 6 3 3 4 5 5 7 8 8 9 11 10 7 4 3 1 0 0 0 0 0 0 1 1 1 2 3 4 4 7 17 23 14 4
90 88 87 87 78 60 44 33 24 15 9 8 10 11 11 10 9 8 7 6 5 2 1 1 0 0 0 0 0 0 0 0 0 0 0 1 2 2 3 8 13 9 3
87 85 84 85 81 70 58 49 37 26 20 19 18 19 19 16 12 9 6 4 2 1 1 0 0 0 0 0 0 0 0 1 2 1 1 4 6 6 4 4 4 3 1
81 81 82 82 80 75 69 60 50 42 37 34 32 31 28 22 15 9 7 5 2 1 1 0 0 1 1 1 0 1 2 5 6 3 4 8 10 10 7 3 2 1 0
75 78 79 78 77 77 75 68 62 59 56 53 50 46 38 27 18 11 8 7 4 2 1 0 0 1 1 1 0 1 4 8 8 4 8 13 13 12 9 3 1 0 0
73 76 77 74 74 77 78 75 73 73 72 70 66 58 46 33 22 14 10 8 6 3 1 0 0 0 0 0 0 1 4 7 5 4 9 15 17 16 11 4 0 0 0
72 74 70 66 67 72 77 79 80 81 80 78 73 61 46 32 21 13 10 9 7 4 2 1 0 0 0 0 0 0 1 3 2 4 9 15 22 23 14 5 1 0 1
70 68 62 59 62 64 69 75 79 80 78 74 67 53 36 24 15 10 9 8 6 4 2 1 1 1 0 1 1 1 0 0 1 6 11 19 30 28 15 6 1 0 1
67 63 56 53 53 50 55 67 73 71 67 61 51 40 27 17 10 7 10 12 7 3 2 1 2 2 1 2 2 1 0 0 1 6 17 29 36 29 16 6 2 0 1
66 62 56 51 43 37 48 65 65 58 54 44 35 30 23 15 11 11 18 21 12 4 2 1 2 3 2 1 1 0 0 0 1 6 20 34 36 28 17 8 4 3 2
66 62 59 56 43 38 54 66 61 53 48 37 29 28 23 17 14 19 26 26 16 6 2 1 1 2 1 0 0 0 1 2 3 7 17 26 29 26 17 9 8 8 7
64 60 60 60 52 51 62 66 60 56 50 42 36 33 25 18 17 22 26 22 14 7 3 2 1 1 0 1 1 2 3 6 7 8 13 20 24 24 17 11 11 12 10
61 58 59 61 60 63 69 67 61 58 54 49 46 37 25 19 19 23 24 19 13 9 7 6 6 5 7 9 10 10 11 13 14 12 12 18 24 24 19 13 13 11 8
60 60 60 61 63 68 73 71 65 62 58 54 50 38 25 22 25 28 27 22 18 18 20 21 20 21 22 22 22 21 19 19 18 14 10 11 17 20 19 15 12 9 6
60 64 65 62 64 70 72 70 66 64 60 55 48 38 27 27 33 35 33 28 27 33 39 39 38 38 36 33 30 27 24 22 19 14 8 6 8 11 12 12 10 7 5
61 66 68 65 66 69 69 67 63 59 54 49 44 38 32 31 35 37 36 33 34 40 44 43 44 45 40 34 29 26 26 25 20 14 9 7 5 4 4 6 7 5 4
62 65 67 65 65 66 65 62 59 53 46 41 38 37 34 33 33 35 36 35 36 40 38 36 41 43 36 27 22 21 24 24 19 13 9 8 5 2 1 2 3 2 2
62 62 63 61 61 60 58 57 54 48 41 35 31 31 32 31 31 32 34 33 35 37 35 33 36 33 25 17 11 10 13 15 13 9 7 6 4 1 0 1 1 1 2
57 58 57 56 54 52 52 52 49 42 34 28 24 24 26 29 29 30 31 34 36 36 31 27 24 19 14 9 4 3 3 4 5 5 4 3 2 0 0 1 1 1 1
51 52 51 48 46 46 48 48 44 34 25 21 18 19 21 22 24 26 28 31 35 34 26 19 14 11 7 5 3 1 0 0 1 1 1 1 0 0 0 1 1 1 1
43 44 45 44 43 43 43 41 37 29 20 15 14 14 14 16 19 21 22 24 27 27 20 14 12 10 6 4 2 1 0 0 0 0 0 0 0 0 0 0 0 0 1
33 35 39 41 42 41 39 36 32 26 19 14 12 10 10 11 13 16 18 18 18 17 12 9 9 8 6 4 3 1 0 0 0 0 0 0 0 0 0 0 0 0 0
25 27 31 36 38 38 36 33 29 22 18 14 11 9 8 8 8 10 12 13 12 10 8 6 7 7 6 5 2 1 0 0 0 0 0 0 0 0 0 0 0 0 0
23 24 27 31 34 34 33 30 25 19 15 12 10 8 7 6 6 6 8 9 9 8 7 6 6 6 6 4 2 0 0 0 0 0 0 0 0 0 0 0 0 0 0

GEFSSE_con_prob3kmehi_108.txt.gz
EHI
9 23 40 47 45 43 43 43 44 45 45 45 49 55 60 61 60 57 52 43 32 21 11 5 1 0 0 1 2 3 5 7 9 11 14 19 21 18 16 14 7 4 6
21 31 45 53 51 48 46 41 38 37 38 40 44 48 52 55 54 50 41 33 25 16 8 4 1 0 0 2 3 3 4 6 8 10 12 15 16 13 11 9 5 2 3
42 44 53 59 58 55 49 40 32 28 27 29 33 36 40 43 42 37 26 18 15 10 5 3 1 0 0 2 3 2 2 4 5 6 7 6 6 7 8 8 5 1 1
59 57 60 64 64 62 54 41 30 23 19 19 20 22 25 27 26 21 13 8 7 6 4 2 1 0 0 1 2 1 0 1 1 1 1 0 1 3 7 9 6 2 0
65 65 68 71 71 68 60 46 32 21 17 15 12 11 12 12 11 8 5 3 2 2 1 0 0 0 0 1 1 0 0 0 0 0 0 0 0 3 6 7 6 3 1
69 69 74 77 75 72 65 51 36 24 18 15 11 9 8 6 4 3 2 1 0 0 0 0 0 0 0 1 0 0 1 1 0 0 0 0 1 4 6 5 4 3 2
74 74 76 78 76 73 68 58 46 34 26 20 15 12 9 7 4 2 1 0 0 0 0 0 0 0 0 0 0 0 1 2 1 0 0 0 2 6 7 6 5 4 2
80 78 77 75 72 70 68 64 58 49 39 29 21 15 11 8 5 2 1 0 0 0 0 0 0 0 0 0 0 1 2 2 2 0 0 0 3 8 9 8 6 4 2
78 77 76 74 69 68 68 67 64 58 48 38 27 18 12 8 5 2 0 0 0 0 0 0 0 0 0 0 1 2 2 2 1 0 0 0 3 8 10 9 6 3 1
72 72 74 73 71 70 67 64 61 55 48 39 29 19 13 8 5 2 0 0 0 0 0 0 1 1 1 1 2 3 2 1 0 0 0 1 4 7 9 7 4 2 2
70 69 69 69 71 71 67 62 57 50 43 37 28 20 14 9 4 2 1 0 0 0 0 0 1 2 2 1 1 2 1 0 0 0 0 1 4 7 7 5 3 3 3
67 65 62 61 63 66 66 64 58 49 40 33 27 21 15 9 4 3 2 0 0 0 0 0 0 1 1 1 0 0 0 0 0 0 0 2 5 7 6 3 2 3 4
59 56 53 52 54 57 61 62 58 49 41 33 26 20 13 8 5 4 2 1 0 0 0 0 0 0 0 0 0 0 0 0 0 0 2 4 6 6 6 4 2 3 4
53 49 46 46 48 49 52 54 51 46 40 33 25 18 10 6 5 3 2 2 2 1 0 0 0 0 0 0 0 0 0 0 0 1 4 8 10 10 9 7 6 6 6
46 44 42 42 43 43 44 44 42 39 35 28 23 17 10 6 5 3 2 2 3 3 2 1 0 0 0 0 0 0 0 0 0 1 5 12 15 16 14 11 10 8 6
36 36 36 37 37 36 34 33 32 31 28 23 19 15 10 6 4 3 2 2 3 4 3 2 1 0 0 0 0 0 0 0 1 2 5 10 16 18 15 10 8 6 3
30 30 30 31 32 30 25 22 24 26 24 19 14 10 8 5 3 2 3 3 3 3 3 3 3 2 1 0 0 0 0 0 1 2 3 5 9 11 9 6 3 2 1
31 30 27 26 26 26 24 21 23 24 21 15 10 7 5 4 3 2 3 3 3 3 3 4 4 3 1 0 0 0 0 0 0 1 1 2 3 3 3 2 2 1 0
32 29 24 21 20 23 26 25 24 23 17 10 7 5 3 4 5 3 2 3 3 3 3 3 4 3 1 0 0 0 0 0 0 0 0 1 1 0 0 1 1 1 1
31 27 22 19 18 22 25 25 22 19 15 10 6 4 3 4 5 3 1 2 3 3 3 3 3 2 1 0 0 0 0 0 0 0 0 0 0 0 0 0 1 1 0
29 26 23 21 21 22 23 22 19 16 14 10 6 4 3 3 4 3 1 1 2 2 2 2 2 1 0 0 0 0 0 0 0 0 0 0 0 0 0 0 0 0 0
26 25 24 24 25 24 23 22 19 16 12 9 6 4 3 3 3 1 0 0 1 1 1 1 1 0 0 0 0 0 0 0 0 0 0 0 0 0 0 0 0 0 0
20 20 22 23 25 25 23 21 18 14 11 8 6 4 3 3 1 0 0 0 0 0 0 0 0 0 0 0 0 0 0 0 0 0 0 0 0 0 0 0 0 0 0
13 15 18 20 20 20 19 17 14 11 8 7 6 4 3 2 1 0 0 0 0 0 0 0 0 0 0 0 0 0 0 0 0 0 0 0 0 0 0 0 0 0 0
11 13 16 17 16 15 13 11 9 7 5 5 6 5 3 1 0 0 0 0 0 0 0 0 0 0 0 0 0 0 0 0 0 0 0 0 0 0 0 0 0 0 0
12 14 16 16 14 12 9 7 6 4 4 5 6 5 2 0 0 0 0 0 0 0 0 0 0 0 0 0 0 0 0 0 0 0 0 0 0 0 0 0 0 0 0

GEFSSE_con_prob3kmehi_114.txt.gz
EHI
32 41 47 45 46 60 77 88 92 93 92 88 83 78 73 70 63 51 39 27 16 9 5 3 4 9 11 8 6 8 9 9 7 5 3 2 1 0 1 2 2 1 0
45 50 55 52 49 57 71 84 90 91 91 89 85 81 79 76 70 58 45 33 22 14 8 5 6 7 8 8 7 8 9 8 6 4 2 1 0 0 0 1 1 1 0
61 60 60 60 58 60 68 80 88 89 88 88 85 84 83 80 75 66 53 40 29 18 10 8 8 7 8 8 8 8 8 6 4 3 1 0 0 0 0 0 0 1 1
69 64 63 67 69 70 74 81 86 86 85 84 83 82 80 76 71 66 54 40 30 21 14 12 11 9 8 7 7 7 7 4 2 1 0 0 0 0 0 0 0 0 0
69 65 66 73 77 77 78 80 83 82 79 77 74 72 71 66 62 57 46 34 27 22 17 14 12 9 7 6 6 5 5 3 1 0 0 0 0 0 0 0 0 0 0
66 63 67 76 79 77 76 76 76 73 69 66 62 59 57 54 50 45 35 27 21 17 13 10 8 6 4 5 4 3 3 2 1 0 0 0 0 0 0 0 0 0 0
65 64 68 76 78 75 73 72 70 66 62 59 54 48 44 41 40 35 27 20 16 10 5 4 5 4 3 3 3 1 1 1 0 0 0 0 0 0 0 0 0 0 0
67 67 69 73 75 73 70 69 67 64 61 58 51 43 37 33 31 28 21 15 11 7 3 3 4 3 2 2 2 1 0 0 0 0 0 0 0 1 0 0 0 0 0
68 69 70 70 72 72 70 68 67 66 63 59 50 40 33 28 25 21 17 12 9 6 4 3 3 2 1 1 1 1 1 0 0 0 0 0 0 1 0 0 0 0 0
66 68 69 71 73 74 72 69 67 68 66 58 47 36 29 25 20 17 14 11 7 4 3 3 3 2 1 1 1 1 0 0 0 0 0 0 1 1 1 1 1 1 0
64 64 66 69 73 76 75 71 68 68 65 58 45 33 27 22 17 14 13 9 5 3 3 4 4 3 2 2 2 1 0 0 0 0 0 0 1 2 2 2 2 1 1
58 58 60 65 71 75 74 71 68 66 64 57 46 37 29 20 14 12 9 7 5 5 5 7 6 3 2 3 2 1 0 0 0 0 0 0 1 2 2 2 2 2 1
53 53 55 60 65 67 67 66 65 64 61 55 48 40 30 19 13 9 7 7 7 7 7 7 6 4 3 3 2 1 0 0 0 0 0 1 1 2 2 2 2 2 1
51 48 49 53 56 57 58 59 59 59 57 53 47 38 27 18 12 9 8 8 7 5 5 5 4 3 2 2 1 0 0 0 0 0 2 3 3 4 4 3 2 2 2
45 42 41 44 48 51 51 52 52 52 52 50 44 34 23 16 12 9 8 7 4 2 2 2 1 1 1 1 0 0 0 0 0 2 6 7 7 6 6 5 3 2 2
37 37 36 37 39 42 43 42 42 43 43 42 37 30 22 16 12 10 8 5 2 1 2 2 1 0 0 0 0 0 0 0 2 6 10 10 9 8 7 5 3 1 1
32 33 34 32 29 29 31 30 29 29 29 29 29 26 21 16 12 9 6 4 2 2 2 3 2 1 0 0 0 0 1 1 4 7 9 9 7 5 4 3 3 2 1
29 30 30 26 20 18 19 18 17 17 18 20 21 20 18 14 10 7 4 3 3 2 2 3 3 2 1 0 0 0 1 2 3 6 6 4 3 2 1 2 3 4 3
27 26 25 21 15 12 12 12 10 12 14 15 15 14 13 10 6 4 3 3 3 3 2 3 3 3 2 1 0 0 1 1 1 2 2 1 2 2 1 1 3 5 5
23 21 19 17 14 11 10 9 8 9 10 10 9 8 8 6 4 2 2 3 3 3 2 2 3 3 3 2 1 0 0 0 0 0 0 0 1 2 1 1 2 3 4
17 16 14 14 14 11 9 8 8 6 5 3 3 3 3 3 2 1 1 3 4 3 1 1 2 3 3 3 2 0 0 0 0 0 0 0 1 1 0 0 1 1 1
12 12 11 12 14 12 10 8 6 4 1 0 0 1 1 1 1 1 1 2 3 2 1 0 1 2 2 2 1 0 0 0 0 0 0 0 0 0 0 0 0 0 0
8 8 8 10 12 13 10 7 5 3 2 1 0 1 1 1 0 0 0 1 1 1 0 1 1 1 1 1 0 0 0 0 0 0 0 0 0 0 0 0 0 0 0
6 6 6 8 9 10 8 7 6 4 3 1 1 1 1 0 0 0 0 0 0 0 0 1 1 0 0 0 0 0 0 0 0 0 0 0 0 0 0 0 0 0 0
6 6 6 7 7 7 7 7 6 5 3 1 1 2 1 0 0 0 0 0 0 0 0 0 0 0 0 0 0 0 0 0 0 0 0 0 0 0 0 0 0 0 0
4 5 6 6 6 6 6 6 6 5 2 1 2 2 1 0 0 0 0 0 0 0 0 0 0 0 0 0 0 0 0 0 0 0 0 0 0 0 0 0 0 0 0

GEFSSE_con_prob3kmehi_120.txt.gz
EHI
24 32 34 26 20 21 29 41 51 53 47 40 33 27 24 23 24 24 21 18 15 16 15 12 8 4 4 4 2 2 2 1 0 0 0 0 0 0 0 0 0 0 0
30 35 36 30 25 27 37 49 59 61 58 51 45 40 35 31 31 31 28 23 18 17 16 14 11 8 8 7 4 3 4 2 0 0 0 0 0 0 0 0 0 1 1
39 38 35 33 33 38 49 62 70 72 69 64 60 56 50 42 39 40 37 29 23 19 16 14 12 11 12 11 6 5 4 2 0 0 0 0 0 0 0 0 1 2 1
43 39 35 37 42 49 60 72 79 79 76 72 69 66 60 52 49 48 42 33 27 22 17 12 10 11 14 11 7 5 3 1 0 0 0 0 0 1 0 0 0 1 1
37 37 39 44 49 55 65 76 82 83 82 78 75 72 66 60 56 51 43 33 28 24 19 14 10 12 15 11 7 4 1 1 0 0 0 0 1 2 1 0 0 0 0
26 29 37 45 49 54 64 74 80 84 85 83 80 77 72 66 59 50 41 33 28 25 20 14 12 14 14 10 5 2 0 0 0 0 0 0 1 2 1 0 0 0 0
19 23 31 38 42 49 58 69 77 83 86 85 83 80 75 68 59 49 41 34 29 26 20 12 9 10 10 7 3 1 0 0 0 0 0 0 2 2 1 0 0 0 0
16 22 29 31 32 41 52 62 72 81 85 84 82 79 73 64 54 46 40 34 28 24 16 8 4 4 5 3 2 1 0 0 0 0 0 1 2 2 0 0 0 0 0
13 20 27 26 24 29 40 52 63 74 78 77 76 73 65 53 42 37 33 30 26 19 11 5 1 1 3 3 1 1 0 0 0 0 0 1 2 1 0 0 0 0 0
13 16 20 20 18 19 26 36 49 60 65 64 62 58 48 34 25 22 22 25 23 16 10 6 3 2 3 3 2 0 0 0 0 0 0 2 3 1 0 0 0 0 0
19 17 16 16 15 13 19 29 36 43 49 45 40 37 28 17 11 13 19 24 20 14 10 9 6 3 2 2 1 0 0 0 0 0 2 4 3 1 0 0 0 0 0
30 26 23 22 18 16 25 36 37 39 40 31 26 27 21 14 10 14 26 26 16 9 8 9 7 3 1 1 1 0 0 0 0 0 3 6 3 0 0 0 0 0 0
40 35 33 32 28 25 34 45 46 48 46 39 34 35 32 27 21 23 31 28 16 9 8 8 7 3 1 1 1 0 0 0 0 0 2 4 2 1 1 1 0 0 1
40 37 35 38 41 42 45 50 53 55 54 51 50 49 45 40 33 33 38 35 24 17 15 12 9 5 3 1 0 0 0 0 1 0 1 1 1 1 2 2 2 2 1
36 33 32 38 48 54 54 54 53 54 53 53 53 51 46 41 37 39 46 45 34 28 25 19 13 10 7 3 1 0 0 0 0 0 0 1 2 2 2 2 3 3 2
32 30 30 36 46 53 54 51 49 49 50 49 48 46 40 37 38 40 45 45 40 34 30 24 17 13 10 6 4 2 1 0 0 0 1 3 4 4 3 3 3 3 1
27 27 27 31 38 43 46 46 45 44 45 44 42 38 34 35 38 37 36 36 38 38 36 33 26 18 12 10 8 6 5 3 3 3 4 8 9 7 6 5 2 1 1
24 24 25 28 33 36 40 43 43 41 40 39 36 32 29 29 31 32 30 31 36 39 40 38 33 24 16 13 13 12 10 8 6 6 8 11 13 12 10 5 1 0 1
24 24 24 27 31 33 35 38 38 37 35 33 31 27 24 22 23 25 28 32 35 38 37 34 31 27 21 16 13 12 10 8 8 8 10 12 13 13 9 5 2 2 2
21 23 23 24 26 28 28 30 30 30 29 28 28 24 21 20 19 20 24 29 31 32 32 30 29 27 23 16 9 5 5 6 9 11 11 12 12 10 7 6 7 7 5
15 18 19 19 20 21 24 26 27 25 23 24 25 23 21 20 19 19 21 24 25 27 28 29 28 24 19 14 8 4 2 4 8 11 11 10 8 6 4 6 9 9 7
11 12 13 13 14 16 19 22 23 21 18 19 21 23 21 20 20 20 21 21 21 23 24 24 24 21 15 12 10 5 1 2 5 7 7 6 4 4 4 5 6 6 5
10 11 9 8 9 12 14 16 17 15 14 14 17 19 19 18 17 17 18 17 17 18 19 18 18 17 13 11 9 5 2 2 3 3 3 3 3 3 3 3 2 2 1
11 11 10 7 6 8 11 13 13 11 12 14 15 15 14 12 12 12 13 12 12 13 13 12 11 11 10 8 6 5 4 3 2 1 1 1 3 3 3 2 2 1 1
10 11 11 9 7 9 12 14 14 13 14 15 14 11 9 7 7 7 7 7 8 8 7 6 6 6 5 4 4 5 5 4 2 0 0 1 2 2 2 1 2 2 1
10 10 10 10 9 10 13 15 16 15 16 17 14 9 7 6 4 4 4 4 5 5 3 3 4 4 4 4 5 5 5 4 2 0 0 0 1 1 1 1 1 1 1

GEFSSE_con_prob3kmehi_126.txt.gz
EHI
49 47 42 29 13 5 1 0 0 0 1 2 3 3 3 3 4 7 10 10 8 4 1 2 3 3 2 1 1 0 1 2 3 8 13 12 9 7 4 3 3 2 0
51 47 42 33 17 6 2 0 0 0 0 1 2 3 3 3 2 5 8 7 5 2 2 3 4 4 3 2 1 0 0 1 2 5 6 5 4 5 6 9 10 6 1
48 40 37 33 21 9 3 1 1 1 0 1 2 3 3 3 2 2 5 4 3 1 1 3 5 5 4 3 1 0 0 0 0 1 1 0 1 2 6 13 15 8 2
41 34 34 34 25 14 8 4 2 2 2 2 3 3 4 4 2 2 3 4 4 3 1 2 5 6 5 3 1 0 0 0 0 0 0 1 1 2 5 10 9 4 1
34 33 36 37 29 20 13 8 5 4 4 5 5 4 4 5 5 5 5 6 8 7 3 2 5 6 5 3 1 0 0 0 1 1 1 3 4 5 5 5 3 0 0
29 30 35 38 32 23 16 11 9 7 7 10 10 8 6 7 9 10 9 9 10 9 6 4 5 5 4 3 2 1 0 1 2 3 4 8 10 9 6 3 1 0 0
30 27 31 37 33 23 16 14 13 11 12 16 18 15 13 13 14 14 12 10 8 5 4 3 4 4 3 2 2 1 0 2 4 6 9 15 18 14 8 3 1 1 0
34 29 29 33 32 25 19 18 18 17 18 23 26 23 21 20 18 15 12 10 7 3 1 1 3 4 3 2 2 1 0 3 6 7 10 18 22 18 11 5 3 2 1
35 30 24 24 24 22 20 22 23 23 24 28 29 26 24 22 18 13 11 10 8 3 1 0 2 3 3 3 2 1 0 2 4 4 7 18 24 21 13 8 4 3 2
33 26 20 18 17 14 13 19 25 27 27 27 26 21 18 15 12 10 9 11 9 5 2 1 1 1 1 2 2 1 0 1 1 2 8 20 26 22 15 10 6 3 2
32 25 19 18 16 12 13 20 24 24 23 22 19 15 11 9 8 8 12 17 14 8 5 2 1 0 0 1 1 0 0 0 0 2 13 25 28 23 17 12 7 3 1
36 27 22 22 20 20 26 31 26 21 20 17 16 15 11 8 10 15 26 30 22 11 6 4 1 1 0 0 0 0 0 0 0 4 16 29 31 27 21 15 8 4 1
37 30 29 30 29 33 42 41 33 29 28 24 22 23 17 12 15 29 41 38 24 12 7 5 2 0 0 0 0 1 0 0 1 7 21 33 35 31 26 18 11 7 5
37 34 36 40 41 46 52 48 41 42 42 36 34 32 25 20 22 33 42 36 22 13 9 6 2 1 1 0 0 0 0 0 3 10 21 31 35 33 27 19 13 11 10
42 41 43 46 50 55 57 53 46 46 46 43 41 39 35 32 30 35 38 33 22 17 15 10 5 3 3 1 1 2 3 4 7 11 16 23 29 28 25 19 14 12 11
43 46 48 49 52 57 59 55 50 47 45 44 43 41 38 38 39 40 40 33 24 22 23 18 13 10 9 6 4 7 10 10 13 16 16 17 20 22 21 18 15 13 11
39 43 46 48 51 56 59 58 54 51 47 44 41 39 36 37 41 43 40 34 28 27 27 25 22 19 17 13 10 13 16 17 19 21 19 16 15 18 20 20 19 15 12
37 39 43 47 53 56 58 59 56 52 48 43 40 38 37 37 39 40 38 33 30 29 29 26 24 24 23 18 16 17 18 19 19 19 18 15 12 13 16 19 17 13 10
36 39 44 48 51 53 54 54 50 47 45 41 39 40 40 39 38 38 35 32 30 29 27 23 23 25 23 20 18 17 18 18 17 15 14 13 10 10 12 13 10 7 5
36 39 42 45 46 47 47 47 45 43 42 38 36 39 41 39 38 38 35 32 29 26 23 21 22 23 22 19 15 14 15 15 14 12 10 9 9 10 10 8 5 3 2
36 37 40 41 41 42 42 42 40 40 40 36 33 36 38 37 36 35 33 31 27 23 20 19 20 19 18 16 13 9 9 11 11 10 8 7 7 8 8 5 3 2 1
30 31 35 37 38 38 38 36 35 36 36 34 32 33 33 32 30 29 29 27 24 22 20 19 17 14 12 12 10 6 5 6 7 7 6 5 4 5 4 3 1 1 1
21 22 25 29 31 32 33 32 32 32 33 32 30 28 27 25 24 24 24 22 21 21 21 20 16 11 7 6 6 5 3 2 2 3 4 3 2 2 2 1 1 1 2
15 15 16 18 20 24 27 29 29 29 29 28 26 24 22 20 19 20 20 18 17 18 19 18 16 12 6 2 3 4 3 1 0 1 1 1 0 1 1 0 1 2 3
13 12 12 12 13 17 20 22 24 24 24 22 21 21 19 17 16 16 15 14 14 14 14 14 15 12 5 2 2 2 1 0 0 0 0 0 0 0 0 1 2 3 3
14 13 11 11 12 14 16 17 18 20 20 19 18 19 18 17 16 14 12 12 12 11 11 11 12 9 5 2 1 1 0 0 0 0 0 0 0 0 0 1 2 3 3

GEFSSE_con_prob3kmehi_132.txt.gz
EHI
6 14 25 30 29 31 30 26 22 22 21 22 27 31 32 31 28 23 23 20 12 5 2 1 1 0 0 0 2 5 8 10 12 13 11 10 9 9 8 5 1 0 0
17 21 28 33 33 34 32 25 20 18 17 18 21 25 25 24 21 19 20 18 10 4 2 2 2 1 1 1 2 4 6 7 9 11 10 9 9 9 8 5 2 0 0
36 31 32 37 39 38 34 25 17 13 12 12 14 16 17 15 14 14 16 13 7 3 2 2 1 1 2 2 3 3 2 3 6 7 6 4 5 8 9 7 3 1 0
48 39 36 43 46 41 33 25 17 12 10 9 9 10 10 10 9 9 9 6 3 1 1 1 0 1 1 2 2 2 1 1 3 3 1 1 3 8 10 7 4 1 0
53 43 42 51 52 43 34 26 19 14 10 7 6 6 7 7 7 5 3 1 0 0 0 0 0 0 0 1 1 1 0 1 2 1 0 0 3 7 9 6 4 2 1
55 48 47 54 55 48 40 31 23 16 10 5 3 3 4 5 5 3 1 0 0 0 0 0 0 0 0 0 0 0 0 1 1 1 0 0 1 5 7 6 5 4 3
58 52 49 54 56 54 47 37 26 17 10 5 2 2 2 3 3 2 1 1 1 1 0 0 0 0 0 0 0 0 0 0 0 0 0 0 1 3 5 7 7 5 4
56 51 46 48 52 55 50 38 26 17 11 6 3 1 1 2 2 2 3 4 5 5 2 1 1 0 0 0 0 0 0 0 0 0 0 1 2 3 5 7 7 4 4
51 46 40 38 41 46 44 34 24 17 13 9 5 3 2 2 2 3 4 6 7 7 5 3 2 1 0 0 0 0 0 0 0 0 0 1 3 5 7 9 7 4 3
40 38 34 31 31 33 32 27 21 18 16 13 9 7 5 3 3 3 3 4 6 6 4 3 4 3 1 0 0 0 0 0 0 0 0 1 4 7 10 10 7 3 2
24 26 27 26 25 23 22 21 19 18 16 13 10 9 6 3 2 2 2 3 4 5 3 3 5 5 3 1 0 0 0 0 0 0 0 2 7 10 9 8 6 3 1
14 16 18 19 18 17 17 17 16 15 12 10 9 7 5 3 2 2 3 3 4 5 3 3 3 3 2 1 0 0 0 0 0 0 1 4 10 11 9 6 5 4 2
12 12 13 14 14 14 16 15 14 12 9 7 6 5 3 3 2 2 3 4 5 6 5 2 1 0 0 0 0 0 0 0 0 0 3 8 14 15 11 9 7 6 6
11 10 10 11 11 12 14 14 12 10 7 6 5 4 3 3 3 3 3 4 7 8 6 3 1 0 0 0 0 0 0 0 0 1 4 11 17 17 13 11 10 9 8
10 11 11 10 10 11 12 11 9 7 6 5 4 4 5 5 5 4 4 4 6 7 6 3 1 0 0 0 0 0 0 0 0 1 4 10 14 14 13 13 12 10 9
9 10 11 11 11 12 13 10 8 7 6 4 4 5 6 6 4 3 3 4 3 3 3 2 1 0 1 0 0 0 0 0 0 1 3 7 8 9 10 12 12 10 8
8 9 10 11 12 13 13 11 10 10 8 6 5 6 6 6 4 2 2 2 2 1 2 1 1 1 1 0 0 0 0 0 0 1 2 3 3 4 7 11 11 9 8
7 8 10 11 11 11 11 11 13 13 11 8 7 7 6 6 6 4 3 2 2 3 3 3 2 2 2 1 0 0 0 0 0 0 0 0 0 1 4 7 9 9 10
8 10 10 9 8 10 12 13 14 14 11 8 7 6 5 6 7 7 6 5 4 5 6 5 3 3 2 1 0 0 0 0 0 0 0 0 0 0 1 3 6 8 9
11 10 9 6 5 8 14 16 14 11 8 6 5 4 4 5 7 8 9 8 7 6 6 5 4 3 2 1 0 0 0 0 0 0 0 0 0 0 1 1 3 5 6
11 9 6 4 4 7 12 15 13 9 8 6 5 5 4 4 6 7 8 8 7 5 5 4 3 3 2 1 0 0 0 0 0 0 0 0 0 0 1 1 2 2 2
7 6 4 3 4 7 9 10 10 9 9 9 8 7 6 5 6 6 7 7 6 5 3 2 2 2 1 0 0 0 0 0 0 0 0 0 0 0 0 1 2 1 0
5 4 4 3 4 5 7 8 10 9 9 10 10 9 8 7 7 6 6 6 6 5 4 3 2 1 0 0 0 0 0 0 0 0 0 0 0 0 0 1 1 0 0
5 5 5 5 5 5 5 6 8 8 8 9 9 7 7 6 6 6 6 6 6 6 4 3 2 1 0 0 0 0 0 0 0 0 0 0 0 0 0 0 0 0 0
8 7 7 6 6 5 4 4 5 5 6 7 6 5 4 5 6 6 6 6 6 5 4 3 2 0 0 0 0 0 0 0 0 0 0 0 0 0 0 0 0 0 0
9 9 8 7 5 4 4 4 4 4 5 6 6 4 4 5 6 6 5 4 4 4 4 3 2 1 0 0 0 0 0 0 0 0 0 0 0 0 0 0 0 0 0

GEFSSE_con_prob3kmehi_138.txt.gz
EHI
10 12 18 24 36 56 70 76 80 83 85 85 78 67 56 45 32 22 14 7 2 1 1 1 1 1 1 1 0 0 0 1 1 1 0 0 0 0 0 0 0 0 0
14 15 20 28 39 57 70 75 77 79 81 80 76 68 56 45 36 27 17 7 3 2 2 2 2 2 2 1 0 0 0 0 1 0 0 0 0 0 0 0 0 0 0
23 19 20 31 43 59 71 74 74 74 74 73 69 63 52 42 37 30 19 9 5 5 5 4 2 2 2 1 1 0 0 1 1 1 0 0 0 0 0 0 0 0 0
31 23 21 32 46 58 68 72 71 69 67 65 60 52 43 37 34 29 19 10 7 7 7 5 2 1 1 2 1 0 0 1 2 1 0 0 0 0 0 0 0 0 0
37 29 26 35 47 55 63 67 67 65 63 59 52 45 38 32 28 24 17 10 7 7 7 5 2 1 1 2 2 1 1 1 1 0 0 0 0 0 0 0 0 0 0
44 37 34 41 48 53 58 63 64 63 60 56 49 42 35 28 22 17 12 8 7 7 5 3 3 3 3 3 3 2 1 0 0 0 0 0 0 0 0 0 0 0 0
51 45 45 49 50 52 55 61 63 61 57 52 44 35 26 21 16 12 9 8 9 8 5 3 4 4 4 3 3 2 1 0 0 0 0 0 0 0 0 0 0 0 0
54 51 51 52 50 50 53 56 58 56 51 45 36 25 16 12 10 8 8 9 10 7 4 3 3 3 2 2 2 2 1 0 0 0 0 0 0 0 0 1 1 0 0
50 48 47 46 45 47 50 49 48 46 42 37 29 19 12 10 8 7 8 10 9 6 4 4 4 3 2 2 1 1 1 0 0 0 0 0 0 0 1 2 3 1 0
41 40 37 35 36 41 43 41 39 38 37 33 26 19 14 13 11 8 8 8 6 5 5 5 6 4 3 3 2 1 1 1 0 0 0 0 0 0 0 2 3 3 1
34 32 29 27 30 34 35 33 32 31 30 25 21 18 15 11 8 7 5 4 3 2 4 7 7 5 4 3 3 2 1 2 1 0 0 1 1 1 0 1 3 4 3
30 27 23 22 25 27 27 27 26 24 20 16 14 13 9 6 4 4 3 2 1 1 3 6 7 4 2 2 2 2 1 1 0 0 0 1 1 1 1 2 3 5 4
25 22 18 17 19 19 20 20 19 16 12 10 8 7 6 4 3 3 2 2 1 0 2 4 5 2 0 0 1 1 0 0 0 0 0 1 1 1 2 3 3 3 4
18 17 15 13 12 12 13 13 12 11 9 8 6 5 4 3 2 1 1 1 0 0 0 2 2 1 0 0 0 0 0 0 0 0 0 0 1 1 2 2 1 1 2
14 13 12 10 9 9 9 8 7 8 7 6 5 3 2 1 1 0 0 0 0 0 0 1 1 1 0 0 0 0 0 0 0 0 0 0 0 1 1 2 2 2 2
11 9 7 7 7 8 9 7 6 6 5 3 3 1 0 0 0 0 0 0 0 0 0 1 2 1 0 0 0 0 0 0 0 0 0 0 0 0 1 2 3 4 3
9 8 6 5 5 7 8 8 6 5 4 2 1 0 0 0 0 0 0 0 0 0 0 0 1 0 0 0 0 0 0 0 0 0 0 0 0 0 1 2 4 4 2
9 7 5 4 3 3 6 7 6 4 3 2 1 0 0 0 0 0 0 0 0 0 0 0 0 0 0 0 0 0 0 0 0 0 0 0 0 0 1 2 3 2 1
7 6 5 3 1 1 2 3 4 3 3 2 1 0 0 0 0 0 0 0 0 0 0 0 0 0 0 0 0 0 0 0 0 0 0 0 0 0 1 1 2 2 1
4 4 4 2 1 0 0 1 1 1 1 1 0 0 0 0 0 0 0 0 0 0 0 0 1 0 0 0 0 0 0 0 0 0 0 0 0 0 0 1 2 2 2
1 2 2 2 1 0 0 0 0 0 0 0 0 0 0 0 0 0 0 0 0 0 0 0 0 0 0 0 0 0 0 0 0 0 0 0 0 0 0 1 2 3 2
0 1 1 1 0 0 0 0 0 0 0 0 0 0 0 0 0 0 0 0 0 0 0 0 0 0 0 0 0 0 0 0 0 0 0 0 0 0 0 0 1 2 2
1 0 0 0 0 0 0 0 0 0 0 0 1 1 0 0 0 0 0 0 0 0 0 0 0 0 0 0 0 1 1 1 0 0 0 0 0 0 0 0 1 2 3
2 1 0 0 0 1 1 1 1 0 0 0 1 1 0 0 0 0 0 0 0 0 0 0 0 0 0 0 0 0 0 0 0 0 0 0 0 0 0 1 2 2 2
3 2 1 1 2 2 2 2 1 0 0 1 1 1 1 0 0 0 0 0 0 0 0 0 0 0 0 0 0 0 0 0 0 0 0 0 0 0 0 1 2 2 1
3 2 2 2 3 3 3 2 1 0 1 2 2 2 2 1 0 0 0 0 1 1 1 0 0 0 0 0 0 0 0 0 0 0 0 0 0 0 0 0 1 2 1

GEFSSE_con_prob3kmehi_144.txt.gz
EHI
5 5 4 4 7 21 42 55 55 49 40 32 27 21 13 9 7 4 2 2 3 3 2 2 1 0 1 0 0 0 0 1 0 0 0 0 0 0 0 0 1 0 0
9 7 4 5 11 27 48 61 62 56 47 40 33 25 17 14 12 8 5 3 3 2 2 1 0 0 1 1 1 1 1 1 0 0 0 0 0 0 0 0 1 0 0
13 9 5 7 17 34 54 67 70 65 58 51 41 29 23 21 20 15 8 3 1 1 1 1 0 0 1 1 2 1 1 0 0 0 0 0 0 0 0 0 0 0 0
15 11 8 10 20 36 53 66 71 69 64 57 44 32 27 27 26 19 10 3 1 1 1 1 0 0 0 1 1 1 0 0 0 0 0 0 1 2 1 0 0 0 0
14 12 11 13 20 33 47 59 65 65 62 54 44 35 29 29 27 20 12 6 4 2 1 1 1 0 0 0 0 0 0 0 0 0 0 0 1 2 1 0 0 0 0
13 12 13 15 21 31 41 50 56 59 56 49 40 34 30 27 25 20 14 10 7 5 2 1 1 1 0 0 0 0 1 0 0 0 0 0 1 2 1 0 0 0 0
17 16 16 19 25 33 40 46 51 52 49 43 36 31 27 24 21 18 14 11 10 8 4 2 2 2 1 0 0 1 1 0 0 0 0 0 1 2 1 0 0 0 0
20 20 21 22 25 33 41 45 47 45 41 38 35 31 26 21 16 13 11 11 10 9 4 2 3 3 3 1 1 1 1 0 0 0 0 0 2 2 1 0 0 0 0
19 21 21 18 18 23 32 40 43 40 35 33 31 28 24 18 11 7 8 9 9 7 3 1 2 3 4 2 1 2 1 0 0 0 0 1 4 3 1 0 0 1 1
21 22 20 16 13 13 20 30 35 33 30 27 24 21 18 12 7 5 7 9 7 5 4 3 3 4 4 3 2 1 1 0 0 0 0 2 4 3 1 0 1 2 2
27 25 22 19 15 12 17 25 27 24 22 20 17 14 10 7 6 6 10 10 6 4 5 4 3 4 4 4 3 2 1 0 0 0 1 3 4 2 0 0 0 1 2
29 26 24 23 21 20 23 27 25 21 18 17 14 10 7 8 8 9 12 10 4 2 2 2 2 2 2 3 4 3 1 0 0 0 3 7 5 1 0 0 0 0 1
27 26 25 25 25 25 26 26 24 22 22 20 14 9 9 10 10 10 11 10 5 3 2 1 0 0 0 1 3 3 1 1 1 1 5 9 7 2 0 0 0 1 2
25 24 23 25 27 27 27 25 22 23 25 23 16 11 9 9 9 9 11 10 8 5 4 3 2 1 1 1 2 1 1 0 1 2 5 8 7 3 0 0 1 2 3
22 20 20 23 26 27 27 24 21 21 23 21 16 11 9 8 8 7 8 8 7 5 5 5 5 5 5 5 4 2 1 0 1 3 6 7 6 3 1 2 3 3 3
18 17 19 21 23 23 23 22 18 17 17 16 13 12 12 11 8 6 5 5 4 3 3 5 6 8 10 9 7 5 3 1 2 3 5 7 6 3 2 3 5 5 4
14 16 18 19 18 18 19 18 16 15 14 13 12 13 13 11 8 5 4 4 4 4 5 4 5 7 8 7 7 7 6 4 4 4 4 5 5 4 4 4 4 5 6
12 14 16 17 17 17 17 18 17 15 15 14 13 13 11 7 4 3 3 3 4 6 8 6 4 4 3 3 5 6 7 6 5 4 3 4 4 4 5 4 4 5 7
13 14 15 15 15 15 16 17 17 16 15 13 12 10 7 4 2 1 1 2 4 6 8 6 4 2 1 1 2 4 5 5 4 3 3 3 4 4 5 5 4 4 6
14 14 14 14 13 12 14 15 14 13 11 9 8 7 6 5 4 3 2 2 5 6 6 4 2 1 1 1 1 1 1 2 2 3 4 4 3 4 4 5 4 4 5
15 15 14 12 11 11 11 12 11 10 8 6 5 5 5 6 7 6 4 4 6 7 6 3 1 1 1 0 0 0 0 0 2 3 4 4 3 4 4 4 4 5 5
15 15 13 12 10 10 9 9 8 7 6 6 6 6 6 7 8 7 6 6 6 6 6 4 2 2 1 0 1 1 1 1 1 2 2 2 2 3 3 3 4 5 6
13 13 13 12 11 9 7 6 6 6 6 7 8 8 8 7 8 7 7 7 7 7 6 4 3 2 1 0 1 2 2 2 1 1 1 0 1 1 1 2 3 4 5
10 10 11 11 10 7 6 5 5 6 6 6 7 7 5 5 7 7 7 7 8 8 6 5 3 1 0 0 1 2 2 2 1 1 1 1 0 0 1 2 4 4 5
9 8 9 9 7 5 5 5 5 4 4 4 4 2 2 2 5 6 6 6 7 8 7 6 4 2 0 0 0 1 1 1 1 2 2 2 1 0 0 2 4 5 4
9 8 8 8 5 4 5 6 5 4 3 3 1 0 0 1 3 5 5 4 5 6 7 6 5 3 1 0 0 0 0 0 1 2 2 2 2 1 0 2 4 4 4

GEFSSE_con_prob3kmehi_150.txt.gz
EHI
35 31 27 17 7 3 1 0 0 0 1 1 1 1 2 3 2 1 0 0 0 0 0 0 0 0 0 0 0 0 0 1 2 4 5 5 5 4 3 2 2 1 0
40 36 31 22 12 7 4 2 1 1 2 2 2 2 3 2 2 1 0 0 0 0 0 0 0 0 0 0 0 0 0 0 1 1 2 2 2 2 1 2 3 2 0
38 35 33 30 22 15 10 7 4 3 2 3 3 4 3 2 1 1 1 0 0 0 0 0 0 0 0 0 0 0 0 0 0 0 0 0 0 0 0 1 3 2 1
34 33 35 38 33 22 13 9 6 3 2 2 3 4 3 1 1 1 1 1 0 0 0 0 0 0 0 0 0 0 0 0 0 0 0 1 2 2 1 0 1 1 0
33 35 41 44 39 28 17 10 7 5 6 6 6 5 3 1 0 0 1 1 0 0 0 0 0 0 0 0 0 0 0 0 1 3 3 3 4 4 2 0 0 0 0
29 33 41 46 44 35 24 15 11 11 12 12 10 9 6 4 2 1 1 0 0 0 0 0 0 0 0 0 0 0 0 0 3 6 6 4 5 5 2 0 0 0 0
27 30 37 45 47 39 28 18 15 14 14 13 12 11 11 10 7 4 1 1 1 0 0 0 0 0 0 0 0 0 0 1 4 7 8 9 10 8 5 1 0 0 0
31 31 32 36 39 35 25 19 17 16 15 13 11 10 12 11 8 5 2 1 0 0 0 0 0 0 0 0 0 0 0 1 3 5 9 16 21 17 10 4 2 1 1
31 28 23 22 24 24 22 19 18 18 16 14 10 8 7 7 7 5 2 1 1 1 0 0 0 1 1 1 1 0 0 0 2 3 8 22 31 26 16 9 5 2 1
30 27 22 18 17 17 18 19 18 17 16 13 9 5 4 5 7 5 3 3 3 2 1 0 0 1 2 2 2 1 0 0 1 2 8 24 36 31 20 13 7 4 2
35 31 27 24 21 17 18 21 18 14 13 11 8 5 4 6 8 7 7 8 6 3 1 0 0 0 1 2 3 3 1 0 0 2 10 25 36 33 22 14 9 5 2
39 34 31 31 28 26 25 23 17 12 13 12 11 9 7 7 10 13 15 13 7 3 1 1 1 1 1 2 5 6 3 0 0 2 11 26 35 32 23 15 11 8 5
33 32 34 35 36 37 35 26 18 18 19 18 17 15 11 11 13 18 19 14 8 3 1 2 3 2 1 1 6 9 5 1 0 2 13 29 36 32 25 18 13 10 9
26 29 33 37 41 44 42 34 28 27 25 21 20 19 15 14 14 17 18 13 8 5 3 3 4 3 1 2 5 8 8 5 3 4 15 32 37 33 27 21 16 13 12
25 27 33 38 41 43 44 40 34 32 26 20 18 18 15 14 15 17 18 15 10 8 8 7 6 5 5 5 4 5 8 9 8 8 17 30 34 32 28 23 19 17 15
32 33 36 37 38 38 38 35 30 26 22 17 15 14 13 14 18 22 21 17 13 13 15 14 11 9 8 8 6 4 6 10 12 15 20 25 28 29 28 26 23 20 17
40 40 39 37 36 35 33 28 22 19 18 18 18 17 13 13 17 20 19 16 15 16 17 14 12 11 10 9 7 4 5 9 12 16 20 21 22 24 26 25 23 21 19
43 42 40 37 37 36 33 27 21 18 18 19 21 20 16 12 11 11 12 13 14 16 14 11 10 11 9 9 7 5 6 8 9 11 14 16 17 21 23 21 19 18 18
40 39 37 36 37 36 33 29 24 22 22 21 19 19 17 12 7 6 7 10 13 15 13 10 11 11 10 8 6 4 5 6 6 6 7 10 13 17 18 15 14 13 12
32 33 32 33 33 33 31 30 28 26 25 21 16 17 17 14 10 7 7 8 11 14 12 10 12 12 10 7 4 2 2 3 4 4 3 4 7 10 11 10 10 10 9
25 26 27 27 28 28 27 27 26 25 23 19 16 17 18 16 12 10 8 9 12 14 12 10 10 10 8 5 3 2 1 2 4 4 2 2 3 6 8 8 7 9 10
21 21 22 22 22 23 23 22 22 21 18 16 15 16 17 16 14 12 12 14 15 15 13 10 8 7 6 4 4 2 1 2 4 4 2 1 3 6 8 7 5 6 8
18 18 18 18 19 19 18 18 17 16 15 13 14 14 15 14 13 12 13 15 15 14 12 10 7 5 4 4 3 2 1 2 4 4 2 1 2 5 6 5 3 4 5
17 17 17 18 18 17 16 15 13 12 11 10 11 12 12 12 12 10 10 12 12 11 10 9 7 5 3 3 3 3 2 2 3 2 1 0 1 2 3 3 3 3 3
16 16 17 17 17 15 14 13 11 9 8 7 8 9 10 10 9 7 7 8 8 8 8 7 6 5 4 3 3 2 2 2 2 1 0 0 0 1 1 1 2 3 2
16 16 16 16 16 14 13 12 11 9 7 6 7 8 8 8 7 6 6 6 5 5 5 6 6 6 5 3 2 1 1 2 3 2 1 0 0 0 0 1 1 2 3

GEFSSE_con_prob3kmehi_156.txt.gz
EHI
8 10 16 20 16 10 8 10 12 13 14 15 19 27 35 36 32 27 22 17 11 6 2 0 0 0 0 0 0 1 2 2 2 1 0 1 2 2 1 2 1 0 0
23 19 21 23 19 13 10 11 12 12 13 14 16 22 27 27 23 19 15 12 7 3 1 0 0 0 0 0 0 0 1 1 1 0 0 0 1 1 1 2 2 0 0
38 29 26 30 28 21 16 15 14 12 11 11 13 15 17 17 13 10 8 6 4 1 0 0 0 0 0 0 0 0 0 1 1 0 0 0 0 0 2 3 2 0 0
42 32 30 39 41 32 23 18 16 13 11 11 11 13 12 11 9 7 6 5 3 1 1 0 0 0 0 1 1 1 1 1 1 1 0 0 0 1 3 3 1 0 0
39 32 34 47 50 40 29 20 16 14 13 12 12 11 10 8 7 7 6 5 2 1 0 0 0 0 0 1 2 2 1 1 1 1 0 0 0 1 4 5 3 1 1
40 34 38 50 53 44 31 22 16 14 13 12 10 9 7 6 6 7 5 2 1 0 0 0 0 0 0 1 2 3 2 1 1 0 0 0 1 4 7 8 7 4 2
41 38 39 48 51 44 33 24 17 13 11 9 7 6 5 5 5 5 3 1 0 0 0 0 0 0 0 0 2 3 3 2 1 0 0 0 2 9 13 12 9 7 5
39 37 37 41 44 41 33 24 17 14 11 8 5 4 4 5 4 3 2 1 1 0 0 0 0 0 0 0 1 3 4 2 1 0 0 0 3 11 17 14 11 9 9
30 29 29 30 32 33 29 22 17 13 10 8 5 4 4 4 4 5 4 3 2 1 0 0 0 0 0 0 1 3 4 2 0 0 0 0 3 11 17 16 13 12 12
20 19 18 18 21 23 21 18 15 12 9 8 7 6 5 4 5 7 7 5 4 2 1 0 0 0 0 0 1 3 4 1 0 0 0 1 4 10 15 16 15 14 14
15 14 13 13 15 16 15 14 13 11 9 7 7 7 6 6 6 6 5 4 2 1 0 0 0 0 0 0 1 2 2 1 0 0 1 3 7 12 15 17 18 16 15
17 15 12 12 14 14 12 10 8 6 5 5 5 5 5 4 4 4 2 1 0 0 0 0 0 0 0 0 1 1 1 1 0 0 1 5 10 15 18 19 19 18 16
21 18 14 12 12 12 9 7 4 3 2 2 2 3 3 2 2 2 2 1 1 0 0 0 0 0 0 0 0 0 1 1 0 0 1 4 11 16 18 17 16 16 15
22 18 14 11 8 7 6 4 3 2 2 1 1 1 1 1 1 1 2 2 1 0 0 0 0 0 0 0 0 0 0 0 0 0 0 3 8 13 14 12 12 13 13
21 18 12 7 5 4 4 4 3 3 2 1 0 0 0 0 0 1 1 1 1 0 0 0 0 0 0 0 0 0 0 0 0 0 0 2 6 10 11 9 9 10 11
21 19 14 9 7 7 7 5 4 3 2 2 1 0 0 0 0 1 0 0 0 0 0 0 0 0 0 0 0 0 0 0 0 0 0 2 4 7 9 7 7 8 9
22 21 18 14 12 12 11 7 5 3 2 2 1 0 1 1 0 0 0 0 0 0 0 0 0 0 0 0 0 0 0 0 0 0 0 1 2 4 7 7 5 6 7
20 19 18 17 15 14 12 9 5 3 2 2 1 1 2 2 1 1 0 0 0 0 0 1 1 0 0 0 0 0 0 0 0 0 0 0 0 1 4 5 5 4 5
15 15 16 16 15 14 12 8 4 3 3 2 2 2 3 3 2 1 0 0 0 0 0 1 1 0 0 0 0 0 0 0 0 0 0 0 0 0 1 2 3 3 2
13 14 15 14 14 13 11 8 4 2 2 3 3 4 4 3 3 2 1 0 0 0 0 1 1 0 0 0 0 0 0 0 0 0 0 0 0 0 0 0 1 1 1
14 15 14 13 13 12 11 9 7 3 2 2 4 5 4 3 3 3 2 0 0 0 0 0 0 0 0 0 0 0 0 0 0 0 0 0 0 0 0 0 0 0 0
15 15 15 13 12 12 12 11 9 5 2 2 3 4 4 3 4 5 2 1 1 0 0 0 0 0 0 0 0 0 0 0 0 0 0 0 0 0 0 0 0 0 0
15 15 14 12 12 13 12 11 9 6 4 3 3 3 4 5 6 5 3 1 1 0 0 0 0 0 0 0 0 0 0 0 0 0 0 0 0 0 0 0 0 0 0
14 13 11 11 11 12 11 10 9 7 6 4 4 4 5 6 6 5 3 2 1 0 0 0 0 0 0 0 0 0 0 0 0 0 0 0 0 0 0 0 0 0 0
13 11 10 10 10 10 10 10 9 8 6 4 4 5 6 6 6 5 3 2 0 0 0 0 0 0 0 0 0 0 0 0 0 0 0 0 0 0 0 0 0 0 0
11 10 10 10 10 10 10 10 9 8 6 4 4 6 6 5 4 4 3 1 0 0 0 0 0 0 0 0 0 0 0 0 0 0 0 0 0 0 0 0 0 0 0

GEFSSE_con_prob3kmehi_162.txt.gz
EHI
3 1 0 0 3 10 20 31 42 51 60 63 59 54 50 40 27 17 9 5 2 1 0 0 0 0 0 0 0 0 0 0 0 0 0 0 0 0 0 0 0 0 0
3 2 1 2 5 11 20 29 39 47 54 58 56 50 44 36 26 17 11 6 3 1 0 0 0 0 0 0 0 0 0 0 0 0 0 0 0 0 0 0 0 0 0
4 3 3 7 12 15 22 31 36 41 46 49 47 39 32 27 23 18 12 7 5 3 1 0 0 0 0 0 0 0 0 0 0 0 0 0 0 0 0 0 0 0 0
4 3 7 15 21 22 27 34 37 37 37 37 34 29 22 20 21 18 12 7 5 2 1 0 0 0 0 0 0 0 0 0 0 0 0 0 0 0 0 0 0 0 0
5 5 12 25 30 29 31 36 38 35 31 28 25 22 18 16 17 15 10 6 4 2 0 0 0 1 0 0 0 0 0 0 0 0 0 0 0 0 0 1 1 0 0
8 7 17 32 38 36 36 37 37 33 28 24 22 20 17 15 14 12 9 6 4 2 0 0 0 0 0 0 0 0 0 0 0 0 0 0 0 0 1 2 2 1 0
13 12 21 34 40 40 39 36 33 29 26 24 23 21 17 15 15 13 10 6 3 2 1 1 1 1 1 1 1 0 0 0 0 0 0 0 1 1 2 2 3 2 1
18 18 23 30 35 38 36 33 28 24 23 23 21 19 19 17 15 12 9 6 3 2 2 3 3 2 2 2 2 1 1 1 0 0 0 0 1 2 2 2 4 4 4
19 19 21 24 26 30 30 27 24 20 19 20 18 17 16 15 11 8 7 5 3 2 2 2 2 1 2 2 2 1 1 0 0 0 0 0 0 2 3 3 3 5 6
17 16 18 19 20 21 22 22 20 17 14 14 15 14 11 7 5 5 7 6 3 1 1 1 0 0 1 1 1 1 0 0 0 0 0 1 1 1 3 4 4 5 6
16 12 13 16 16 15 14 15 14 12 9 9 11 11 7 2 1 2 6 6 3 0 0 0 0 0 0 0 1 2 1 0 0 0 1 2 2 2 2 3 4 4 5
14 9 7 10 12 11 10 10 8 7 7 7 8 8 4 1 0 1 2 2 1 0 0 0 0 0 0 0 1 1 1 0 0 0 1 2 2 2 2 2 3 4 4
12 8 5 6 9 10 9 7 6 6 6 6 7 5 2 1 1 1 0 0 0 0 1 1 1 0 0 0 0 0 0 0 0 0 0 1 1 2 2 2 3 4 3
11 8 7 8 8 8 7 6 6 6 6 5 4 3 2 2 2 1 0 0 0 0 1 1 1 0 1 0 0 0 0 0 0 0 0 0 0 1 2 3 4 3 3
9 8 10 11 9 7 7 5 4 4 4 3 2 2 2 2 1 1 1 0 0 0 0 0 0 0 0 0 0 0 0 0 0 0 0 0 0 0 1 3 4 3 3
6 6 9 10 8 6 6 4 2 1 2 2 1 1 1 1 0 0 1 0 0 0 0 0 0 0 0 0 0 0 0 0 0 0 0 0 0 0 2 3 4 4 4
6 5 6 7 5 4 4 3 1 0 1 1 0 0 0 0 0 0 0 0 0 0 0 0 0 0 0 0 0 0 0 0 0 0 0 0 0 0 1 2 3 4 5
8 6 6 5 4 3 3 3 2 1 0 0 0 0 0 0 1 1 1 0 0 0 0 0 0 0 0 0 0 0 0 0 0 0 0 0 0 0 0 1 2 3 4
9 8 7 5 4 3 2 2 2 1 0 0 0 0 0 0 1 2 1 1 0 0 0 0 0 0 0 0 0 0 0 0 0 0 0 0 0 0 0 0 1 1 2
8 8 7 5 3 3 2 2 1 0 0 0 0 0 0 0 1 1 1 1 1 0 0 0 0 0 0 0 0 0 0 0 0 0 0 0 0 0 0 0 0 0 1
8 9 7 4 3 3 3 2 1 1 1 1 1 0 0 0 1 0 0 0 0 0 0 0 0 0 0 0 0 0 0 0 0 0 0 0 0 0 0 0 0 0 0
8 8 6 4 3 3 3 4 3 2 2 2 1 0 0 0 0 0 0 0 0 0 0 0 0 0 0 0 0 0 0 0 0 0 0 0 0 0 0 0 0 0 0
8 7 6 4 4 3 4 5 6 5 3 2 1 0 0 0 0 0 0 0 0 0 0 0 0 0 0 0 0 0 0 0 0 0 0 0 0 0 0 0 0 0 0
7 7 6 5 5 4 5 7 8 7 5 2 0 0 0 0 0 0 0 0 0 0 0 0 0 0 0 0 0 0 0 0 0 0 0 0 0 0 0 0 0 0 0
7 7 7 6 5 5 6 8 8 7 5 2 0 0 0 0 0 0 0 0 0 0 0 0 0 0 0 0 0 0 0 0 0 0 0 0 0 0 0 0 0 0 0
7 7 7 5 5 5 6 7 7 7 5 2 0 0 0 0 0 0 0 0 0 0 0 0 0 0 0 0 0 0 0 0 0 0 0 0 0 0 0 0 0 0 0